     2              OBSERVATION DATA    GPS                 RINEX VERSION / TYPE
teqc 1997Sep10 19970910 19:05:26UTC                         PGM / RUN BY / DATE
                                                            COMMENT
BIT 2 OF LLI FLAGS DATA COLLECTED UNDER A-S CONDITION       COMMENT
BIT 2 OF LLI FLAGS DATA COLLECTED UNDER A-S CONDITION       COMMENT
Original Marker Name: unknown                               COMMENT
Campaign Name: Southern California GPS Survey March - A     COMMENT
4-Character Station Name: RYAN                              COMMENT
6-Character Antenna Code: TI4100                            COMMENT
Vertical Measurement Point: PAE                             COMMENT
Vertical Offset to Rinex Ref. Point: 0.0000                 COMMENT
Radial Measurement Point: RRP                               COMMENT
Radial Offset to Rinex Ref. Point: 0.0000                   COMMENT
Antenna Height from Field Measurement: 1.5888 m             COMMENT
Original XYZ: 0.0000 0.0000 0.0000                          COMMENT
New XYZ position is based on association with SCEC monument COMMENT
E1D0O8P4+0011. Position of that monument is believed to be  COMMENT
valid to within 1 m horizontally; vertical accuracy         COMMENT
should be no worse than 3-times this value.                 COMMENT
                                                            COMMENT
Revised Rinex header created by UCSD GPS archive for        COMMENT
GSAC on 12-Apr-1999 (1999:102) 19:43:05 GMT                 COMMENT
For assistance contact dagnew@ucsd.edu or hjohnson@ucsd.edu COMMENT
                                                            COMMENT
(RYAN AIRPORT)                                              MARKER NAME
unknown NATIONAL GEODETIC SURVEY                            OBSERVER / AGENCY
0003 TI 4100 GSI TI4100                                     REC # / TYPE / VERS
4017 TI 4100                                                ANT # / TYPE
 -2412027.0000 -4730451.0000  3522421.0000                  APPROX POSITION XYZ
        1.5888        0.0000        0.0000                  ANTENNA: DELTA H/E/N
     1     1     0                                          WAVELENGTH FACT L1/2
     6    L1    L2    P1    P2    D1    D2                  # / TYPES OF OBSERV
     0                                                      INTERVAL
  1988     3    27     3     3   20.000000                  TIME OF FIRST OBS
  1988     3    27     8    11   53.000000                  TIME OF LAST OBS
     0                                                      # OF SATELLITES
                                                            END OF HEADER
 88  3 27  3  3 20.3400000  0  3G 6G 9G11
    189572.266 8                                                      1744.486
     48001.725
   4369087.245 9  -8310378.352 8  22097855.738    22097863.043        2967.840
      2330.505
    125561.239 8                                                        -0.500 1
      3199.950
 88  3 27  3 32 32.0800000  0  3G 6G 9G11
  -2490517.629 9  -2086363.068 9  18977892.938    18977898.078        1283.903
       999.158
   -861756.317 1 -12289558.447 1  21102455.319    21102460.229        2906.717
      2332.070
  -4820125.949 9  -3789417.586 9  19798095.996    19798101.676        2407.155
      1882.466
 88  3 27  3 33  2.0800000  0  3G 6G 9G11
  -2528826.844 8  -2116214.378 9  18970603.975    18970607.888        1265.762
       979.280
   -950950.940 9 -12359060.691 9  21085480.367    21085486.497        2988.358
      2316.785
  -4892266.137 9  -3845630.674 9  19784368.045    19784374.035        2403.503
      1862.159
 88  3 27  3 33 32.0800000  0  3G 6G 9G11
  -2566836.096 5  -2145831.950 6  18963370.583    18963375.735        1257.971
       985.021
  -1040099.469 1 -12428527.029 3  21068516.754    21068523.967        2927.960
      2350.128
  -4963941.802 9  -3901481.789 8  19770728.161    19770735.604        2385.632
      1851.515
 88  3 27  3 34  2.0800000  0  3G 6G 9G11
  -2604543.193 9  -2175214.071 9  18956195.067    18956199.990        1249.693
       980.572
  -1129199.916 1 -12497955.889 1  21051560.099    21051567.727        2949.411
      2273.562
  -5035151.439 9  -3956969.767 8  19757178.266    19757182.967        2362.690
      1859.400
 88  3 27  3 34 32.0800000  0  3G 6G 9G11
  -2641946.326 9  -2204359.350 9  18949078.223    18949082.040        1237.652
       977.211
  -1218250.871 9 -12567346.187 8  21034614.979    21034620.624        2978.039
      2316.058
  -5105893.346 9  -4012093.278 9  19743716.104    19743720.874        2353.639
      1821.838
 88  3 27  3 35  2.0800000  0  3G 6G 9G11
  -2679043.174 9  -2233265.955 9  18942018.792    18942022.806        1228.282
       958.849
  -1307250.797 9 -12636696.729 8  21017678.124    21017685.100        2969.260
      2307.619
  -5176165.614 9  -4066850.841 8  19730343.691    19730350.629        2333.249
      1822.118
 88  3 27  3 35 32.0800000  0  3G 6G 9G11
  -2715831.338 9  -2261932.040 8  18935017.695    18935022.063        1221.424
       946.838
  -1396197.481 1 -12706005.773 1  21000753.821    21000760.056        2953.518
      2298.814
  -5245966.663 9  -4121241.207 8  19717060.474    19717066.521        2329.118
      1802.929
 88  3 27  3 36  2.0800000  0  3G 6G 9G11
  -2752308.673 9  -2290355.921 9  18928076.708    18928080.616        1208.426
       944.974
  -1485089.064 8 -12775271.885 9  20983836.371    20983842.996        2955.081
      2313.013
  -5315294.557 9  -4175262.902 8  19703868.204    19703873.532        2308.680
      1814.096
 88  3 27  3 36 32.0800000  0  3G 6G 9G11
  -2788473.501 9  -2318536.281 9  18921195.212    18921199.532        1194.287
       939.549
  -1573924.362 9 -12844494.134 9  20966933.020    20966937.943        2967.721
      2306.917
  -5384148.316 9  -4228915.126 7  19690765.740    19690771.551        2270.538
      1784.182
 88  3 27  3 37  2.0800000  0  3G 6G 9G11
  -2824323.096 8  -2346471.013 8  18914372.330    18914377.161        1189.224
       926.556
  -1662700.788 9 -12913670.517 9  20950039.123    20950044.250        2954.603
      2302.567
  -5452525.734 9  -4282196.183 8  19677753.540    19677759.403        2274.039
      1772.351
 88  3 27  3 37 32.0800000  0  3G 6G 9G11
  -2859855.301 9  -2374158.422 9  18907610.853    18907615.372        1177.597
       911.929
  -1751416.671 9 -12982799.723 9  20933156.203    20933161.906        2966.564
      2299.318
  -5520425.422 8  -4335104.973 8  19664833.015    19664838.371        2258.513
      1773.843
 88  3 27  3 38  2.0800000  0  3G 6G 9G11
  -2895067.726 9  -2401596.655 9  18900910.065    18900914.726        1184.997
       917.658
  -1840069.651 9 -13051879.914 8  20916286.098    20916291.542        2963.805
      2314.038
  -5587845.376 8  -4387639.961 8  19652003.468    19652009.422        2246.304
      1741.575
 88  3 27  3 38 32.0800000  0  3G 6G 9G11
  -2929958.609 9  -2428784.339 9  18894270.398    18894275.461        1154.567
       909.828
  -1928658.619 9 -13120910.236 8  20899428.576    20899434.636        2951.676
      2304.717
  -5654784.494 9  -4439800.278 8  19639265.193    19639271.369        2233.211
      1741.662
 88  3 27  3 39  2.0800000  0  3G 6G 9G11
  -2964525.435 9  -2455719.517 9  18887693.316    18887697.273        1152.031
       903.590
  -2017180.982 8 -13189888.651 8  20882583.384    20882589.554        2963.271
      2289.388
  -5721240.852 9  -4491584.404 8  19626618.464    19626625.359        2207.485
      1717.347
 88  3 27  3 39 32.0800000  0  3G 6G 9G11
  -2998765.987 9  -2482400.443 9  18881176.991    18881182.363        1141.242
       881.065
  -2105635.555 9 -13258814.235 9  20865751.002    20865756.366        2955.767
      2297.211
  -5787212.981 9  -4542991.213 8  19614065.409    19614070.709        2185.915
      1715.930
 88  3 27  3 40  2.0800000  0  3G 6G 9G11
  -3032677.981 9  -2508825.362 9  18874723.707    18874728.646        1144.472
       873.049
  -2194019.328 9 -13327684.665 8  20848932.740    20848937.581        2937.601
      2290.202
  -5852699.031 9  -4594019.276 8  19601603.815    19601609.248        2175.014
      1693.772
 88  3 27  3 40 32.0800000  0  3G 6G 9G11
  -3066259.210 9  -2534992.535 9  18868332.875    18868338.178        1116.689
       857.521
  -2282331.025 9 -13396498.922 8  20832126.749    20832132.134        2937.107
      2310.335
  -5917697.555 9  -4644667.426 8  19589234.031    19589241.127        2160.149
      1678.020
 88  3 27  3 41  2.0800000  0  3G 6G 9G11
  -3099507.615 9  -2560900.376 8  18862006.623    18862010.857        1109.137
       858.944
  -2370568.602 9 -13465255.432 8  20815335.722    20815340.722        2946.612
      2297.901
  -5982207.458 9  -4694934.850 9  19576958.711    19576963.919        2144.129
      1664.722
 88  3 27  3 41 32.0800000  0  3G 6G 9G11
  -3132420.927 9  -2586547.091 9  18855743.240    18855748.257        1096.490
       853.550
  -2458729.924 9 -13533952.530 9  20798558.592    20798563.974        2924.866
      2293.769
  -6046226.970 8  -4744820.159 8  19564776.379    19564782.732        2121.849
      1647.765
 88  3 27  3 42  2.0800000  0  3G 6G 9G11
  -3164996.769 9  -2611930.851 8  18849544.551    18849549.225        1094.568
       840.116
  -2546812.856 9 -13602588.536 9  20781797.478    20781802.840        2927.873
      2289.624
  -6109754.462 8  -4794322.060 8  19552687.083    19552692.817        2108.436
      1645.454
 88  3 27  3 42 32.0800000  0  3G 6G 9G11
  -3197233.097 9  -2637050.051 9  18843410.210    18843415.298        1068.986
       833.766
  -2634815.671 9 -13671162.119 9  20765051.021    20765056.694        2940.640
      2296.385
  -6172788.366 9  -4843439.354 8  19540692.611    19540698.448        2082.703
      1643.931
 88  3 27  3 43  2.0800000  0  3G 6G 9G11
  -3229127.614 9  -2661902.915 9  18837340.982    18837344.348        1062.009
       824.917
  -2722736.307 9 -13739671.659 8  20748320.347    20748325.705        2925.217
      2282.752
  -6235327.626 9  -4892171.214 8  19528792.189    19528796.392        2080.510
      1625.526
 88  3 27  3 43 32.0800000  0  3G 6G 9G11
  -3260677.562 9  -2686487.277 9  18831336.976    18831340.629        1054.234
       818.107
  -2810571.927 9 -13808114.962 9  20731605.228    20731611.377        2937.849
      2277.781
  -6297369.960 9  -4940515.859 8  19516984.618    19516991.169        2067.057
      1605.623
 88  3 27  3 44  2.0800000  0  3G 6G 9G11
  -3291881.336 9  -2710801.894 9  18825398.339    18825403.680        1045.925
       798.782
  -2898321.352 9 -13876491.087 9  20714907.386    20714913.143        2930.991
      2282.820
  -6358914.797 9  -4988472.838 7  19505272.801    19505279.371        2060.079
      1591.083
 88  3 27  3 44 32.0800000  0  3G 6G 9G11
  -3322736.534 9  -2734844.891 9  18819527.543    18819531.885        1034.266
       798.477
  -2985981.984 9 -13944798.029 8  20698226.366    20698231.330        2914.603
      2283.796
  -6419960.267 9  -5036040.709 7  19493656.891    19493662.699        2030.686
      1578.425
 88  3 27  3 45  2.0800000  0  3G 6G 9G11
  -3353240.627 9  -2758614.299 9  18813722.041    18813727.348        1001.986
       788.666
  -3073551.825 9 -14013034.232 8  20681561.813    20681568.052        2914.053
      2265.552
  -6480505.157 9  -5083218.518 8  19482135.072    19482141.783        2016.029
      1562.642
 88  3 27  3 45 32.0800000  0  3G 6G 9G11
  -3383391.475 8  -2782108.450 9  18807985.717    18807989.624         966.907
       771.845
  -3161028.680 9 -14081197.969 9  20664916.057    20664920.428        2909.452
      2270.131
  -6540548.134 8  -5130005.218 9  19470710.506    19470715.551        1991.181
      1557.591
 88  3 27  3 46  2.0800000  0  3G 6G 9G11
  -3413187.233 9  -2805325.914 8  18802315.383    18802319.426         996.715
       762.860
  -3248410.526 9 -14149287.661 9  20648288.028    20648292.389        2910.393
      2278.651
  -6600087.791 9  -5176399.716 8  19459379.177    19459385.909        1970.352
      1545.113
 88  3 27  3 46 32.0800000  0  3G 6G 9G11
  -3442625.608 9  -2828264.888 8  18796713.138    18796716.872         974.442
       763.270
  -3335695.480 9 -14217301.861 9  20631678.197    20631683.136        2916.342
      2268.982
  -6659122.883 8  -5222401.064 8  19448145.289    19448151.428        1964.156
      1522.887
 88  3 27  3 47  2.0800000  0  3G 6G 9G11
  -3471704.350 9  -2850923.633 8  18791179.315    18791184.606         969.307
       748.612
  -3422881.294 9 -14285238.814 9  20615086.966    20615091.952        2905.050
      2265.521
  -6717652.372 9  -5268008.418 8  19437007.414    19437014.054        1952.274
      1513.013
 88  3 27  3 47 32.0800000  0  3G 6G 9G11
  -3500421.363 9  -2873300.530 9  18785714.592    18785719.069         963.956
       745.704
  -3509965.752 9 -14353096.804 9  20598515.254    20598520.879        2912.060
      2264.197
  -6775674.835 8  -5313220.697 8  19425965.797    19425972.602        1928.048
      1507.271
 88  3 27  3 48  2.0800000  0  3G 6G 9G11
  -3528774.615 9  -2895393.953 8  18780319.557    18780324.041         951.253
       734.600
  -3596946.964 9 -14420874.328 9  20581963.119    20581968.217        2902.084
      2260.320
  -6833189.097 9  -5358036.982 9  19415021.672    19415028.234        1909.356
      1493.893
 88  3 27  3 48 32.0800000  0  3G 6G 9G11
  -3556761.570 8  -2917201.951 8  18774993.454    18774998.548         942.553
       720.886
  -3683822.461 9 -14488569.477 9  20565430.984    20565436.902        2896.629
      2243.742
  -6890193.749 9  -5402456.164 8  19404174.452    19404179.914        1891.868
      1476.855
 88  3 27  3 49  2.0800000  0  3G 6G 9G11
  -3584379.808 9  -2938722.647 8  18769737.559    18769742.665         940.551
       711.944
  -3770589.906 9 -14556180.429 9  20548919.547    20548924.891        2894.795
      2256.691
  -6946687.213 9  -5446477.008 8  19393423.073    19393429.142        1887.522
      1459.997
 88  3 27  3 49 32.0800000  0  3G 6G 9G11
  -3611627.557 8  -2959954.643 8  18764552.586    18764556.974         915.799
       713.659
  -3857247.298 9 -14623705.627 9  20532430.345    20532434.552        2885.888
      2242.188
  -7002668.662 9  -5490098.881 8  19382770.270    19382775.936        1861.478
      1442.934
 88  3 27  3 50  2.0800000  0  3G 6G 9G11
  -3638502.170 9  -2980895.902 9  18759438.877    18759442.607         900.377
       701.779
  -3943792.042 9 -14691143.055 9  20515960.889    20515965.611        2882.834
      2257.455
  -7058136.782 9  -5533320.769 8  19372215.243    19372221.381        1842.212
      1429.587
 88  3 27  3 50 32.0800000  0  3G 6G 9G11
  -3665001.565 9  -3001544.770 9  18754395.832    18754400.560         895.680
       676.302
  -4030222.048 9 -14758491.060 8  20499513.418    20499518.884        2875.298
      2250.794
  -7113090.337 8  -5576141.693 8  19361757.180    19361764.073        1829.796
      1424.193
 88  3 27  3 51  2.0800000  0  3G 6G 9G11
  -3691123.520 8  -3021899.523 9  18749425.677    18749428.445         855.617
       671.207
  -4116534.821 8 -14825747.716 9  20483089.126    20483094.271        2867.746
      2240.473
  -7167527.999 9  -5618560.621 9  19351399.428    19351404.583        1798.863
      1415.301
 88  3 27  3 51 32.0800000  0  3G 6G 9G11
  -3716865.945 9  -3041958.542 8  18744527.356    18744531.738         862.052
       655.946
  -4202728.479 9 -14892911.559 9  20466686.442    20466691.789        2865.505
      2240.865
  -7221448.927 8  -5660576.896 9  19341138.081    19341143.087        1804.533
      1403.209
 88  3 27  3 52  2.0800000  0  3G 6G 9G11
  -3742226.459 9  -3061719.976 9  18739701.522    18739705.186         837.555
       653.777
  -4288800.448 9 -14959980.574 8  20450307.488    20450312.838        2867.108
      2224.839
  -7274851.830 8  -5702189.516 8  19330974.729    19330982.317        1789.828
      1377.932
 88  3 27  3 52 32.0800000  0  3G 6G 9G11
  -3767203.052 9  -3081182.238 9  18734948.164    18734951.971         828.639
       635.223
  -4374748.617 9 -15026953.121 9  20433952.688    20433957.603        2862.930
      2232.656
  -7327735.799 9  -5743397.782 8  19320912.501    19320918.233        1733.474
      1358.352
 88  3 27  3 53  2.0800000  0  3G 6G 9G11
  -3791793.366 9  -3100343.500 8  18730268.996    18730273.282         804.916
       629.786
  -4460570.646 9 -15093827.376 9  20417620.522    20417626.196        2859.469
      2229.537
  -7380099.734 9  -5784200.807 9  19310947.013    19310953.398        1743.011
      1343.240
 88  3 27  3 53 32.0800000  0  3G 6G 9G11
  -3815995.379 9  -3119202.208 8  18725663.404    18725667.239         806.399
       616.215
  -4546264.181 9 -15160601.502 8  20401313.899    20401319.143        2862.427
      2216.929
  -7431942.631 8  -5824597.848 8  19301082.149    19301088.004        1734.367
      1340.568
 88  3 27  3 54  2.0800000  0  3G 6G 9G11
  -3839807.078 9  -3137756.774 8  18721132.022    18721135.848         795.187
       610.691
  -4631826.997 9 -15227273.775 9  20385032.010    20385037.207        2849.158
      2215.258
  -7483263.582 9  -5864588.159 8  19291315.832    19291322.600        1707.326
      1322.063
 88  3 27  3 54 32.0800000  0  3G 6G 9G11
  -3863226.276 9  -3156005.481 9  18716675.975    18716679.795         781.351
       611.306
  -4717256.834 9 -15293842.438 8  20368774.973    20368780.115        2845.210
      2217.004
  -7534061.702 8  -5904171.085 9  19281649.388    19281655.933        1681.018
      1319.174
 88  3 27  3 55  2.0800000  0  3G 6G 9G11
  -3886250.689 9  -3173946.571 9  18712293.621    18712297.926         760.873
       600.631
  -4802551.073 9 -15360305.431 8  20352544.098    20352548.714        2840.729
      2220.645
  -7584335.769 9  -5943345.663 8  19272083.072    19272088.476        1676.066
      1309.456
 88  3 27  3 55 32.0800000  0  3G 6G 9G11
  -3908877.974 8  -3191578.204 7  18707987.285    18707992.724         759.207
       573.085
  -4887707.524 9 -15426661.060 9  20336338.918    20336343.103        2838.448
      2212.337
  -7634084.752 8  -5982111.075 8  19262615.351    19262622.242        1659.878
      1269.886
 88  3 27  3 56  2.0800000  0  3G 6G 9G11
  -3931106.539 9  -3208899.157 9  18703758.137    18703762.362         724.606
       574.825
  -4972724.152 9 -15492907.743 8  20320160.596    20320166.587        2848.887
      2191.210
  -7683308.406 8  -6020467.134 9  19253248.376    19253255.130        1637.957
      1267.805
 88  3 27  3 56 32.0800000  0  3G 6G 9G11
  -3952934.069 9  -3225907.609 8  18699604.423    18699609.299         731.280
       565.044
  -5057598.190 9 -15559043.316 9  20304009.811    20304015.153        2829.653
      2204.881
  -7732005.161 8  -6058412.631 8  19243981.985    19243987.560        1622.167
      1266.935
 88  3 27  3 57  2.0800000  0  3G 6G 9G11
  -3974358.412 9  -3242601.896 8  18695527.538    18695531.909         706.313
       554.046
  -5142327.582 9 -15625066.175 8  20287886.746    20287891.863        2822.667
      2203.656
  -7780174.104 8  -6095946.843 9  19234816.373    19234821.886        1579.026
      1243.018
 88  3 27  3 57 32.0800000  0  3G 6G 9G11
  -3995377.674 8  -3258980.527 9  18691527.083    18691532.129         699.247
       543.619
  -5226910.184 9 -15690974.643 9  20271790.583    20271795.408        2820.897
      2199.823
  -7827815.046 8  -6133069.626 8  19225750.473    19225756.409        1583.053
      1233.703
 88  3 27  3 58  2.0800000  0  3G 6G 9G11
  -4015989.591 9  -3275041.752 9  18687605.643    18687609.553         679.750
       541.208
  -5311343.034 9 -15756766.443 9  20255723.491    20255728.148        2817.850
      2199.673
  -7874926.710 9  -6169779.998 8  19216785.129    19216791.549        1547.480
      1210.141
 88  3 27  3 58 32.0800000  0  3G 6G 9G11
  -4036192.405 9  -3290784.195 8  18683760.694    18683766.135         673.897
       521.989
  -5395624.195 9 -15822440.036 7  20239684.733    20239691.031        2805.777
      2185.320
  -7921508.849 9  -6206077.738 8  19207921.510    19207926.308        1562.727
      1200.366
 88  3 27  3 59  2.0800000  0  3G 6G 9G11
  -4055984.194 8  -3306206.353 7  18679994.331    18679998.472         658.092
       519.379
  -5479751.553 9 -15887993.766 9  20223677.060    20223681.249        2804.828
      2195.777
  -7967560.511 9  -6241962.129 8  19199157.099    19199162.974        1525.032
      1193.743
 88  3 27  3 59 32.0800000  0  3G 6G 9G11
  -4075362.727 9  -3321306.481 9  18676307.097    18676311.844         644.184
       497.960
  -5563722.369 9 -15953425.524 9  20207697.719    20207702.200        2803.273
      2180.883
  -8013081.213 9  -6277432.776 9  19190495.559    19190500.515        1504.291
      1188.020
 88  3 27  4  0  2.0800000  0  3G 6G 9G11
  -4094326.266 9  -3336083.270 9  18672698.036    18672702.521         620.525
       489.398
  -5647534.913 9 -16018733.958 9  20191748.111    20191753.740        2793.991
      2160.794
  -8058070.391 8  -6312489.256 8  19181934.390    19181940.038        1494.737
      1164.047
 88  3 27  4  0 32.0800000  0  3G 6G 9G11
  -4112873.085 9  -3350535.314 9  18669169.508    18669173.461         598.778
       478.890
  -5731186.522 9 -16083916.975 8  20175829.755    20175835.040        2783.042
      2169.394
  -8102527.602 9  -6347131.212 8  19173474.006    19173478.957        1490.056
      1156.746
 88  3 27  4  1  2.0800000  0  3G 6G 9G11
  -4131000.977 9  -3364660.935 9  18665719.326    18665723.731         606.362
       466.730
  -5814674.938 9 -16148972.844 8  20159943.093    20159947.588        2792.069
      2171.680
  -8146452.086 8  -6381358.063 8  19165115.972    19165120.619        1454.842
      1136.514
 88  3 27  4  1 32.0800000  0  3G 6G 9G11
  -4148707.647 9  -3378458.336 8  18662349.827    18662354.764         600.357
       457.011
  -5897997.378 8 -16213899.381 8  20144087.090    20144092.062        2773.425
      2162.732
  -8189843.122 9  -6415169.233 8  19156858.454    19156864.562        1415.823
      1100.200
 88  3 27  4  2  2.0800000  0  4G 6G 9G11G13
  -4165991.336 8  -3391926.129 8  18659060.357    18659064.950         577.670
       451.537
  -5981151.762 9 -16278694.968 8  20128263.466    20128268.057        2778.776
      2166.523
  -8232700.084 9  -6448564.234 9  19148702.668    19148708.637        1401.812
      1107.663
 -21074434.748 9  26651299.609 9  22154852.713    22154860.441        3752.110
      2903.471
 88  3 27  4  2 32.0800000  0  4G 6G 9G11G13
  -4182850.102 9  -3405062.815 9  18655852.959    18655857.432         553.149
       432.212
  -6064135.399 9 -16343357.486 9  20112472.204    20112476.388        2751.312
      2155.624
  -8275022.579 9  -6481542.775 8  19140649.692    19140655.129        1410.432
      1085.268
 -21186429.365 9  26564031.217 8  22133540.326    22133547.816        3728.474
      2912.326
 88  3 27  4  3  2.0800000  0  4G 6G 9G11G13
  -4199281.477 8  -3417866.479 8  18652726.069    18652730.174         544.983
       432.647
  -6146945.280 9 -16407884.628 7  20096714.286    20096718.833        2759.542
      2151.193
  -8316809.195 9  -6514103.755 8  19132697.614    19132702.710        1368.902
      1092.818
 -21298213.582 9  26476926.780 8  22112267.082    22112276.244        3724.814
      2908.355
 88  3 27  4  3 32.0800000  0  4G 6G 9G11G13
  -4215283.722 9  -3430335.744 9  18649680.541    18649686.030         537.153
       416.491
  -6229579.607 9 -16472274.965 9  20080988.812    20080993.582        2736.265
      2145.632
  -8358059.710 9  -6546246.990 8  19124847.411    19124852.730        1373.232
      1059.848
 -21409784.883 9  26389988.236 8  22091036.760    22091044.705        3732.501
      2892.479
 88  3 27  4  4  2.0800000  0  4G 6G 9G11G13
  -4230854.917 8  -3442469.131 8  18646717.575    18646721.628         514.075
       398.018
  -6312035.529 9 -16536526.286 8  20065297.837    20065302.656        2745.451
      2142.134
  -8398773.828 8  -6577972.248 9  19117100.263    19117105.524        1353.280
      1040.946
 -21521140.938 9  26303217.435 8  22069846.166    22069853.007        3721.704
      2880.039
 88  3 27  4  4 32.0800000  0  4G 6G 9G11G13
  -4245993.681 9  -3454265.567 9  18643836.876    18643841.778         508.557
       381.837
  -6394311.461 9 -16600637.366 9  20049641.332    20049646.065        2741.655
      2135.789
  -8438951.822 9  -6609279.757 8  19109454.519    19109460.124        1336.032
      1030.948
 -21632280.367 9  26216615.393 9  22048695.840    22048705.243        3716.321
      2878.200
 88  3 27  4  5  2.0800000  0  4G 6G 9G11G13
  -4260698.817 9  -3465724.115 9  18641038.857    18641042.535         480.487
       377.475
  -6476405.155 9 -16664606.435 9  20034019.796    20034024.273        2739.431
      2132.061
  -8478593.565 9  -6640169.391 8  19101910.445    19101916.902        1315.091
      1034.011
 -21743201.259 9  26130183.665 8  22027589.801    22027596.755        3699.846
      2884.476
 88  3 27  4  5 32.0800000  0  4G 6G 9G11G13
  -4274967.824 9  -3476842.807 9  18638323.238    18638328.610         471.843
       358.852
  -6558314.084 9 -16728431.536 9  20018432.430    20018437.237        2725.906
      2122.287
  -8517698.176 9  -6670640.491 8  19094469.861    19094475.818        1294.740
      1017.787
 -21853900.432 9  26043924.685 8  22006523.652    22006531.214        3678.786
      2876.000
 88  3 27  4  6  2.0800000  0  4G 6G 9G11G13
  -4288798.941 9  -3487620.291 8  18635690.957    18635695.703         452.776
       366.651
  -6640035.744 9 -16792110.709 9  20002881.870    20002886.475        2724.925
      2121.771
  -8556265.467 9  -6700692.891 8  19087130.439    19087136.677        1282.755
       984.375
 -21964375.688 9  25957840.188 8  21985501.998    21985508.359        3692.885
      2853.450
 88  3 27  4  6 32.0800000  0  4G 6G 9G11G13
  -4302190.066 9  -3498054.918 8  18633142.988    18633148.119         429.650
       341.932
  -6721567.189 9 -16855641.656 9  19987366.632    19987370.767        2714.463
      2108.859
  -8594294.834 8  -6730326.142 8  19079893.760    19079899.540        1263.401
       979.584
 -22074624.410 9  25871932.191 8  21964521.375    21964528.423        3675.309
      2856.153
 88  3 27  4  7  2.0800000  0  4G 6G 9G11G13
  -4315138.968 9  -3508144.964 8  18630679.472    18630683.207         427.585
       335.234
  -6802905.883 9 -16919022.427 8  19971888.421    19971891.435        2708.881
      2112.606
  -8631785.630 9  -6759539.726 9  19072759.225    19072765.748        1236.591
       973.054
 -22184644.454 9  25786202.383 8  21943584.608    21943591.817        3663.459
      2850.598
 88  3 27  4  7 32.0800000  0  4G 6G 9G11G13
  -4327643.297 8  -3517888.580 8  18628299.067    18628304.713         420.727
       311.286
  -6884048.439 9 -16982250.350 9  19956447.761    19956452.633        2694.264
      2107.461
  -8668736.652 8  -6788332.708 8  19065728.057    19065734.161        1217.692
       944.514
 -22294432.354 8  25700653.469 8  21922694.419    21922700.430        3638.515
      2855.700
 88  3 27  4  8  2.0800000  0  4G 6G 9G11G13
  -4339701.037 8  -3527284.222 9  18626005.597    18626009.825         389.260
       309.763
  -6964992.541 9 -17045323.623 9  19941044.511    19941048.537        2685.588
      2105.025
  -8705147.991 8  -6816705.155 8  19058798.483    19058804.263        1207.222
       943.718
 -22403986.066 9  25615287.025 7  21901845.662    21901854.299        3648.340
      2834.579
 88  3 27  4  8 32.0800000  0  4G 6G 9G11G13
  -4351309.858 9  -3536330.050 9  18623795.846    18623800.748         381.645
       297.180
  -7045735.010 9 -17108239.792 9  19925679.456    19925683.346        2691.760
      2092.579
  -8741018.800 9  -6844656.421 8  19051973.038    19051978.393        1191.975
       931.297
 -22513302.030 9  25530105.845 7  21881043.641    21881051.148        3645.948
      2833.399
 88  3 27  4  9  2.0800000  0  4G 6G 9G11G13
  -4362467.841 8  -3545024.577 9  18621673.240    18621677.657         357.993
       280.552
  -7126272.978 9 -17170996.610 8  19910354.107    19910358.009        2679.719
      2089.478
  -8776348.469 9  -6872186.003 7  19045249.375    19045254.377        1162.661
       911.655
 -22622379.207 9  25445110.746 8  21860286.818    21860293.892        3646.857
      2828.720
 88  3 27  4  9 32.0800000  0  4G 6G 9G11G13
  -4373173.330 8  -3553366.509 8  18619635.804    18619640.088         349.811
       281.068
  -7206604.474 9 -17233592.540 9  19895066.267    19895071.993        2686.465
      2080.207
  -8811137.110 9  -6899294.014 9  19038629.436    19038635.245        1150.317
       879.748
 -22731214.625 9  25360304.002 9  21839575.954    21839583.459        3629.688
      2819.163
 88  3 27  4 10  2.0800000  0  4G 6G 9G11G13
  -4383424.288 8  -3561354.256 8  18617684.887    18617689.291         328.711
       264.316
  -7286726.518 9 -17296025.269 9  19879820.307    19879825.269        2668.164
      2078.337
  -8845384.258 8  -6925980.064 9  19032113.527    19032117.580        1134.671
       892.654
 -22839805.863 9  25275687.530 8  21818912.123    21818919.351        3599.943
      2808.332
 88  3 27  4 10 32.0800000  0  4G 6G 9G11G13
  -4393218.855 9  -3568986.376 9  18615820.687    18615825.000         328.145
       248.769
  -7366636.272 9 -17358292.568 8  19864613.810    19864618.615        2664.360
      2075.348
  -8879089.453 9  -6952243.826 8  19025699.048    19025705.081        1110.030
       872.049
 -22948150.714 9  25191263.063 8  21798294.037    21798301.883        3605.518
      2814.353
 88  3 27  4 11  2.0800000  0  4G 6G 9G11G13
  -4402555.326 9  -3576261.540 8  18614043.981    18614048.702         303.233
       224.858
  -7446331.604 9 -17420392.786 8  19849447.982    19849452.725        2648.244
      2074.484
  -8912252.595 8  -6978085.212 9  19019388.420    19019393.927        1086.036
       848.598
 -23056246.616 9  25107032.579 8  21777723.612    21777730.762        3602.950
      2802.355
 88  3 27  4 11 32.0800000  0  4G 6G 9G11G13
  -4411431.677 8  -3583178.164 9  18612354.531    18612359.156         288.632
       219.900
  -7525809.467 9 -17482323.553 9  19834323.166    19834328.802        2643.531
      2059.397
  -8944873.632 8  -7003504.184 8  19013179.600    19013186.200        1087.551
       840.433
 -23164090.690 9  25022998.314 8  21757202.449    21757208.809        3591.012
      2789.946
 88  3 27  4 12  2.0800000  0  4G 6G 9G11G13
  -4419846.274 8  -3589734.987 9  18610753.813    18610758.962         291.941
       220.925
  -7605067.388 9 -17544082.932 9  19819241.417    19819245.723        2642.191
      2056.085
  -8976952.199 8  -7028500.430 8  19007075.715    19007081.036        1060.821
       822.587
 -23271681.454 9  24939161.439 8  21736728.073    21736734.323        3572.057
      2798.198
 88  3 27  4 12 32.0800000  0  4G 6G 9G11G13
  -4427797.285 8  -3595930.572 8  18609240.555    18609245.438         256.328
       198.474
  -7684102.692 9 -17605668.849 9  19804201.741    19804206.049        2635.916
      2048.946
  -9008488.445 8  -7053074.123 8  19001074.507    19001080.577        1040.972
       817.697
 -23379016.536 9  24855523.814 7  21716302.243    21716309.771        3570.335
      2765.171
 88  3 27  4 13  2.0800000  0  4G 6G 9G11G13
  -4435282.858 9  -3601763.469 9  18607816.126    18607820.930         252.644
       177.925
  -7762912.542 9 -17667079.069 8  19789204.004    19789208.818        2619.744
      2047.908
  -9039482.210 8  -7077225.075 8  18995176.850    18995182.858        1028.820
       804.977
 -23486092.860 9  24772087.813 8  21695926.914    21695933.501        3553.022
      2795.929
 88  3 27  4 13 32.0800000  0  4G 6G 9G11G13
  -4442301.356 9  -3607232.426 9  18606480.047    18606485.356         230.451
       169.823
  -7841495.019 9 -17728312.152 8  19774250.977    19774255.142        2614.704
      2031.609
  -9069933.290 8  -7100953.169 9  18989382.113    18989387.735         999.498
       788.274
 -23592908.769 8  24688854.720 8  21675600.729    21675607.603        3551.228
      2772.603
 88  3 27  4 14  2.0800000  0  4G 6G 9G11G13
  -4448850.661 9  -3612335.768 9  18605234.357    18605238.714         206.416
       165.678
  -7919846.233 9 -17789365.003 8  19759340.868    19759344.899        2608.324
      2036.033
  -9099841.470 8  -7124258.212 8  18983690.019    18983696.849         996.499
       767.757
 -23699461.809 9  24605826.463 8  21655323.596    21655330.924        3550.255
      2768.993
 88  3 27  4 14 32.0800000  0  4G 6G 9G11G13
  -4454929.355 8  -3617072.407 9  18604077.911    18604082.959         213.904
       145.452
  -7997964.200 9 -17850236.107 9  19744476.026    19744480.285        2604.648
      2035.126
  -9129206.716 8  -7147140.199 9  18978103.153    18978108.660         959.794
       761.518
 -23805750.129 9  24523004.476 8  21635098.109    21635105.286        3543.509
      2753.601
 88  3 27  4 15  2.0800000  0  4G 6G 9G11G13
  -4460535.566 9  -3621440.879 9  18603010.543    18603015.114         186.448
       136.647
  -8075846.377 9 -17910923.492 8  19729655.518    19729659.897        2594.505
      2017.255
  -9158028.958 8  -7169599.063 8  18972617.826    18972623.992         937.043
       741.534
 -23911771.142 9  24440390.784 9  21614922.789    21614930.290        3514.745
      2743.087
 88  3 27  4 15 32.0800000  0  4G 6G 9G11G13
  -4465667.732 9  -3625439.957 9  18602034.583    18602038.689         160.779
       134.392
  -8153489.889 9 -17971424.894 9  19714880.633    19714883.752        2582.065
      2006.431
  -9186308.532 8  -7191635.066 8  18967236.362    18967242.736         925.767
       737.874
 -24017522.177 9  24357987.445 8  21594798.666    21594806.569        3531.755
      2736.917
 88  3 27  4 16  2.0800000  0  4G 6G 9G11G13
  -4470324.029 8  -3629068.220 9  18601147.705    18601152.209         153.937
       112.507
  -8230891.651 9 -18031737.915 9  19700150.616    19700156.053        2581.825
      2005.095
  -9214045.158 8  -7213248.000 8  18961957.534    18961963.824         910.161
       707.688
 -24123001.096 9  24275796.149 9  21574727.937    21574733.879        3512.289
      2724.471
 88  3 27  4 16 32.0800000  0  4G 6G 9G11G13
  -4474502.904 9  -3632324.490 9  18600352.778    18600357.477         130.652
       107.610
  -8308049.764 9 -18091861.080 9  19685467.851    19685471.649        2563.780
      2010.855
  -9241238.930 8  -7234437.931 9  18956783.691    18956789.176         891.055
       692.998
 -24228206.041 9  24193818.335 7  21554707.365    21554714.143        3506.253
      2726.055
 88  3 27  4 17  2.0800000  0  4G 6G 9G11G13
  -4478202.563 8  -3635207.342 8  18599648.902    18599653.644         124.336
        88.838
  -8384960.875 9 -18151791.783 9  19670832.882    19670836.683        2567.878
      2005.331
  -9267889.706 8  -7255204.738 9  18951712.869    18951717.871         874.404
       679.409
 -24333134.906 9  24112055.633 8  21534740.160    21534746.351        3502.624
      2722.886
 88  3 27  4 17 32.0800000  0  4G 6G 9G11G13
  -4481421.531 7  -3637715.613 9  18599036.092    18599041.189         111.274
        83.147
  -8461622.356 9 -18211527.968 8  19656244.621    19656248.915        2557.089
      1982.203
  -9293997.838 9  -7275548.719 9  18946743.204    18946749.342         858.631
       672.400
 -24437784.947 9  24030510.208 8  21514825.827    21514832.440        3484.866
      2716.555
 88  3 27  4 18  2.0800000  0  4G 6G 9G11G13
  -4484158.063 9  -3639847.972 9  18598515.562    18598519.533          72.080
        79.052
  -8538032.114 9 -18271068.008 8  19641703.803    19641709.458        2541.706
      1973.970
  -9319563.499 8  -7295469.991 8  18941878.238    18941884.491         858.240
       655.299
 -24542154.308 9  23949183.484 8  21494964.479    21494971.695        3477.832
      2696.546
 88  3 27  4 18 32.0800000  0  4G 6G 9G11G13
  -4486410.715 8  -3641603.274 9  18598086.524    18598092.062          66.299
        53.439
  -8614186.897 9 -18330409.359 9  19627212.306    19627216.219        2536.204
      1987.758
  -9344587.188 9  -7314968.943 8  18937116.601    18937123.139         827.866
       648.303
 -24646240.780 9  23868077.203 8  21475158.167    21475163.987        3477.067
      2686.380
 88  3 27  4 19  2.0800000  0  4G 6G 9G11G13
  -4488177.893 8  -3642980.288 9  18597750.446    18597754.912          40.661
        34.984
  -8690084.268 9 -18389550.131 9  19612770.115    19612773.905        2528.812
      1968.527
  -9369068.752 9  -7334045.473 9  18932458.858    18932463.337         816.335
       613.947
 -24750042.550 9  23787192.780 8  21455404.826    21455411.266        3465.815
      2681.987
 88  3 27  4 19 32.0800000  0  4G 6G 9G11G13
  -4489458.097 9  -3643977.844 9  18597506.610    18597512.002          38.867
        24.812
  -8765721.424 9 -18448488.134 9  19598376.178    19598380.897        2522.369
      1965.265
  -9393008.359 8  -7352699.675 8  18927903.075    18927908.663         774.653
       612.089
 -24853557.054 9  23706532.179 7  21435706.721    21435713.518        3440.879
      2683.336
 88  3 27  4 20  2.0800000  0  4G 6G 9G11G13
  -4490249.886 9  -3644594.816 9  18597356.138    18597360.870          20.725
        30.858
  -8841095.980 9 -18507221.518 9  19584033.007    19584037.183        2514.386
      1958.206
  -9416406.527 9  -7370932.000 8  18923450.731    18923455.727         764.494
       603.831
 -24956782.175 9  23626097.078 7  21416063.654    21416070.140        3444.794
      2669.815
 88  3 27  4 20 32.0800000  0  4G 6G 9G11G13
  -4490551.986 7  -3644830.207 9  18597298.838    18597302.942          32.982
         3.318
  -8916205.189 8 -18565748.137 8  19569740.413    19569744.090        2503.812
      1944.834
  -9439263.743 9  -7388742.806 8  18919100.871    18919106.533         758.154
       578.273
 -25059716.019 9  23545888.965 8  21396475.869    21396482.290        3420.457
      2660.444
 88  3 27  4 21  2.0800000  0  4G 6G 9G11G13
  -4490362.833 9  -3644682.821 8  18597335.444    18597339.219         -10.335
       -14.447
  -8991046.661 9 -18624066.146 8  19555498.150    19555503.418        2495.599
      1936.209
  -9461580.193 8  -7406132.228 9  18914853.984    18914859.355         738.800
       575.483
 -25162356.935 9  23465909.078 9  21376943.524    21376950.553        3424.388
      2653.739
 88  3 27  4 21 32.0800000  0  4G 6G 9G11G13
  -4489680.934 9  -3644151.461 9  18597464.767    18597469.154         -22.599
       -19.462
  -9065616.980 9 -18682172.855 8  19541307.528    19541311.773        2471.325
      1931.201
  -9483356.442 8  -7423100.705 9  18910709.406    18910715.882         715.930
       564.671
 -25264702.347 9  23386159.464 8  21357468.086    21357474.809        3406.629
      2653.429
 88  3 27  4 22  2.0800000  0  4G 6G 9G11G13
  -4488504.528 9  -3643234.767 9  18597687.697    18597692.833         -47.097
       -34.872
  -9139914.235 9 -18740066.784 8  19527169.992    19527174.328        2469.164
      1913.572
  -9504592.525 8  -7439648.275 8  18906668.445    18906674.597         701.871
       541.861
 -25366750.183 9  23306641.727 8  21338049.394    21338056.011        3393.535
      2654.181
 88  3 27  4 22 32.0800000  0  4G 6G 9G11G13
  -4486832.066 9  -3641931.558 8  18598006.636    18598010.952         -59.305
       -46.634
  -9213934.922 9 -18797745.206 9  19513083.846    19513088.754        2462.146
      1913.585
  -9525288.336 9  -7455774.866 9  18902730.256    18902736.279         690.571
       531.247
 -25468498.297 9  23227357.543 8  21318686.396    21318693.610        3397.419
      2631.817
 88  3 27  4 23  2.0800000  0  4G 6G 9G11G13
  -4484662.291 9  -3640240.830 9  18598419.655    18598423.702         -71.785
       -49.592
  -9287676.222 9 -18855205.932 8  19499051.452    19499056.448        2453.247
      1902.797
  -9545444.507 8  -7471480.949 9  18898894.240    18898899.880         655.931
       520.777
 -25569944.741 9  23148308.418 8  21299381.958    21299389.340        3377.116
      2629.792
 88  3 27  4 23 32.0800000  0  4G 6G 9G11G13
  -4481994.377 9  -3638161.924 9  18598927.270    18598931.532         -91.290
       -62.647
  -9361136.399 9 -18912447.583 8  19485072.066    19485076.636        2445.592
      1916.524
  -9565062.101 8  -7486767.364 8  18895161.243    18895166.717         643.698
       500.750
 -25671087.562 9  23069495.890 8  21280135.097    21280142.280        3363.552
      2619.272
 88  3 27  4 24  2.0800000  0  4G 6G 9G11G13
  -4478826.989 9  -3635693.837 8  18599529.631    18599534.512        -123.116
       -93.629
  -9434312.822 9 -18969468.150 9  19471146.962    19471151.181        2441.525
      1902.611
  -9584141.901 8  -7501634.725 8  18891530.844    18891536.453         657.486
       487.372
 -25771924.809 9  22990921.470 9  21260946.324    21260953.224        3358.121
      2601.718
 88  3 27  4 24 32.0800000  0  4G 6G 9G11G13
  -4475159.214 9  -3632835.814 9  18600228.308    18600232.073        -125.692
      -100.837
  -9507202.944 9 -19026265.615 9  19457276.296    19457281.040        2426.030
      1899.069
  -9602684.544 8  -7516083.521 9  18888002.659    18888007.452         618.212
       466.829
 -25872455.277 9  22912586.090 8  21241816.160    21241822.859        3354.923
      2618.215
 88  3 27  4 25  2.0800000  0  4G 6G 9G11G13
  -4470990.086 9  -3629587.140 9  18601021.580    18601025.523        -139.830
      -123.170
  -9579804.661 9 -19082838.344 9  19443460.979    19443465.209        2413.335
      1889.487
  -9620691.006 8  -7530114.509 8  18884575.668    18884580.843         602.375
       468.706
 -25972676.963 9  22834491.321 8  21222744.931    21222752.495        3341.479
      2577.975
 88  3 27  4 25 32.0800000  0  4G 6G 9G11G13
  -4466318.426 9  -3625946.877 9  18601910.011    18601914.258        -155.986
      -126.071
  -9652115.318 9 -19139184.274 8  19429701.810    19429705.818        2417.936
      1875.090
  -9638161.777 9  -7543728.081 8  18881252.188    18881257.571         563.763
       454.768
 -26072588.269 9  22756638.408 8  21203731.947    21203738.408        3333.066
      2589.713
 88  3 27  4 26  2.0800000  0  4G 6G 9G11G13
  -4461143.029 9  -3621914.095 9  18602894.994    18602899.290        -168.291
      -134.541
  -9724132.236 9 -19195301.326 8  19415996.052    19415999.827        2392.379
      1866.173
  -9655097.461 7  -7556924.698 8  18878028.711    18878033.995         551.108
       429.696
 -26172187.585 9  22679028.600 9  21184779.477    21184785.319        3303.449
      2578.602
 88  3 27  4 26 32.0800000  0  4G 6G 9G11G13
  -4455462.582 9  -3617487.761 8  18603976.586    18603980.311        -185.468
      -152.673
  -9795852.743 9 -19251187.410 8  19402348.013    19402352.631        2377.905
      1855.063
  -9671498.782 8  -7569704.931 7  18874907.405    18874913.028         538.524
       413.335
 -26271472.730 9  22601663.603 8  21165885.544    21165891.325        3293.880
      2566.659
 88  3 27  4 27  2.0800000  0  4G 6G 9G11G13
  -4449275.525 9  -3612666.678 9  18605153.585    18605157.344        -214.813
      -174.011
  -9867273.656 9 -19306840.034 8  19388756.315    19388760.453        2391.653
      1856.480
  -9687366.151 8  -7582069.094 7  18871888.606    18871893.447         516.228
       403.063
 -26370441.411 9  22524545.200 8  21147052.441    21147058.133        3283.409
      2574.626
 88  3 27  4 27 32.0800000  0  4G 6G 9G11G13
  -4442580.643 8  -3607449.887 9  18606427.527    18606431.553        -227.955
      -187.389
  -9938392.284 9 -19362257.112 9  19375223.504    19375228.012        2366.749
      1839.771
  -9702700.220 8  -7594017.703 8  18868970.864    18868975.718         504.601
       393.022
 -26469091.666 9  22447674.930 9  21128279.247    21128287.144        3286.456
      2560.539
 88  3 27  4 28  2.0800000  0  4G 6G 9G11G13
  -4435376.529 9  -3601836.288 9  18607798.714    18607802.560        -239.318
      -190.906
 -10009206.248 9 -19417436.787 8  19361747.753    19361752.473        2367.730
      1842.288
  -9717501.067 7  -7605550.804 8  18866152.938    18866158.937         472.265
       377.233
 -26567421.282 8  22371054.517 8  21109568.098    21109575.258        3292.269
      2552.666
 88  3 27  4 28 32.0800000  0  4G 6G 9G11G13
  -4427661.476 9  -3595824.553 9  18609266.769    18609270.905        -258.122
      -198.611
 -10079711.809 9 -19472376.161 9  19348330.900    19348336.094        2351.335
      1825.840
  -9731769.185 8  -7616668.812 8  18863437.684    18863443.875         467.704
       371.106
 -26665427.811 9  22294685.847 9  21090917.951    21090924.989        3272.094
      2548.714
 88  3 27  4 29  2.0800000  0  4G 6G 9G11G13
  -4419434.346 8  -3589413.812 8  18610832.133    18610836.701        -269.015
      -213.791
 -10149906.261 9 -19527073.113 9  19334974.638    19334977.874        2326.247
      1833.116
  -9745505.066 8  -7627372.071 7  18860824.547    18860829.611         441.197
       346.238
 -26763109.435 9  22218570.355 7  21072329.440    21072336.386        3264.749
      2532.546
 88  3 27  4 29 32.0800000  0  4G 6G 9G11G13
  -4410693.431 9  -3582602.709 9  18612494.889    18612499.761        -289.900
      -220.701
 -10219786.356 9 -19581525.103 8  19321676.123    19321680.492        2322.101
      1822.422
  -9758709.011 8  -7637660.855 7  18858313.437    18858317.548         418.909
       317.096
 -26860463.877 9  22142709.814 8  21053803.284    21053810.346        3241.608
      2519.391
 88  3 27  4 30  2.0800000  0  4G 6G 9G11G13
  -4401437.196 9  -3575390.050 8  18614256.594    18614260.985        -320.282
      -241.455
 -10289349.199 9 -19635729.881 8  19308438.918    19308443.533        2315.354
      1809.821
  -9771381.846 8  -7647535.760 7  18855899.679    18855906.779         404.563
       332.326
 -26957488.535 9  22067106.229 7  21035340.499    21035347.407        3224.686
      2507.312
 88  3 27  4 30 32.0800000  0  4G 6G 9G11G13
  -4391664.469 9  -3567774.933 9  18616116.965    18616120.603        -331.358
      -247.911
 -10358591.793 9 -19689685.137 9  19295263.057    19295266.986        2312.396
      1809.659
  -9783523.648 7  -7656996.891 7  18853589.454    18853594.624         398.184
       301.723
 -27054181.596 9  21991761.048 7  21016940.795    21016946.985        3216.975
      2501.328
 88  3 27  4 31  2.0800000  0  4G 6G 9G11G13
  -4381373.972 9  -3559756.363 9  18618074.677    18618079.433        -357.881
      -259.792
 -10427511.061 9 -19743388.440 8  19282147.046    19282150.997        2306.096
      1788.812
  -9795135.186 8  -7666044.827 8  18851381.033    18851386.546         379.898
       287.518
 -27150540.842 9  21916675.961 9  20998604.186    20998610.308        3200.747
      2512.494
 88  3 27  4 31 32.0800000  0  4G 6G 9G11G13
  -4370564.544 8  -3551333.440 9  18620131.791    18620135.279        -356.749
      -282.659
 -10496104.514 9 -19796837.860 8  19269094.659    19269098.983        2288.034
      1772.146
  -9806217.190 8  -7674680.123 8  18849271.682    18849277.037         364.221
       292.738
 -27246564.869 9  21841852.086 7  20980331.626    20980337.778        3200.604
      2474.969
 88  3 27  4 32  2.0800000  0  4G 6G 9G11G13
  -4359234.940 9  -3542505.181 8  18622287.616    18622291.795        -383.176
      -295.093
 -10564369.233 9 -19850031.119 8  19256104.666    19256108.235        2266.639
      1775.626
  -9816770.376 9  -7682903.371 8  18847263.000    18847268.561         332.395
       281.298
 -27342251.750 9  21767290.939 8  20962122.232    20962129.084        3193.132
      2485.601
 88  3 27  4 32 32.0800000  0  4G 6G 9G11G13
  -4347384.012 9  -3533270.691 9  18624543.465    18624547.122        -403.088
      -313.777
 -10632302.068 9 -19902965.778 7  19243177.478    19243181.502        2269.334
      1756.289
  -9826795.158 9  -7690714.882 7  18845356.097    18845360.068         314.676
       269.355
 -27437599.210 9  21692994.273 8  20943978.427    20943985.558        3180.564
      2464.965
 88  3 27  4 33  2.0800000  0  4G 6G 9G11G13
  -4335010.402 8  -3523628.920 8  18626897.949    18626901.327        -411.485
      -318.699
 -10699900.278 9 -19955639.665 8  19230314.348    19230318.795        2253.314
      1757.327
  -9836292.569 9  -7698115.443 8  18843548.497    18843553.517         306.734
       251.497
 -27532604.984 9  21618963.853 9  20925899.916    20925906.516        3166.872
      2453.413
 88  3 27  4 33 32.0800000  0  4G 6G 9G11G13
  -4322112.759 8  -3513578.816 9  18629351.931    18629356.296        -436.309
      -339.645
 -10767160.561 9 -20008050.264 8  19217514.835    19217517.819        2242.860
      1757.594
  -9845263.118 8  -7705105.463 8  18841841.057    18841846.608         288.456
       218.613
 -27627267.083 9  21545201.233 9  20907886.769    20907892.507        3156.075
      2459.596
 88  3 27  4 34  2.0800000  0  4G 6G 9G11G13
  -4308690.060 9  -3503119.569 8  18631905.616    18631910.225        -462.943
      -359.144
 -10834080.486 8 -20060195.629 8  19204779.894    19204784.542        2223.530
      1733.944
  -9853707.401 9  -7711685.406 8  18840235.604    18840239.662         266.072
       204.912
 -27721583.873 9  21471707.702 9  20889938.024    20889944.115        3152.805
      2450.400
 88  3 27  4 34 32.0800000  0  4G 6G 9G11G13
  -4294741.240 9  -3492250.367 9  18634560.763    18634564.819        -466.356
      -374.946
 -10900656.785 8 -20112073.235 8  19192111.057    19192115.165        2214.104
      1716.353
  -9861626.319 8  -7717855.977 8  18838726.698    18838732.783         262.428
       195.977
 -27815553.342 9  21398484.786 8  20872056.200    20872062.892        3127.503
      2447.958
 88  3 27  4 35  2.0800000  0  4G 6G 9G11G13
  -4280265.116 9  -3480970.276 8  18637314.575    18637320.288        -481.197
      -377.817
 -10966886.654 9 -20163680.903 8  19179507.442    19179511.624        2215.109
      1713.339
  -9869020.639 9  -7723617.771 9  18837319.350    18837325.870         241.137
       168.375
 -27909173.352 9  21325534.176 8  20854240.588    20854247.800        3121.474
      2433.163
 88  3 27  4 35 32.0800000  0  4G 6G 9G11G13
  -4265260.595 9  -3469278.449 9  18640170.463    18640174.181        -513.222
      -392.214
 -11032767.095 9 -20215016.300 9  19166971.429    19166975.830        2187.079
      1713.395
  -9875890.930 8  -7728971.224 8  18836012.287    18836018.208         212.469
       177.037
 -28002441.985 9  21252857.375 8  20836491.598    20836498.324        3112.264
      2406.282
 88  3 27  4 36  2.0800000  0  4G 6G 9G11G13
  -4249726.878 9  -3457174.258 8  18643126.152    18643130.350        -513.238
      -409.731
 -11098295.469 9 -20266077.329 9  19154500.497    19154505.305        2187.653
      1696.108
  -9882238.576 9  -7733917.431 7  18834804.793    18834811.108         202.501
       148.733
 -28095357.718 9  21180455.560 7  20818810.801    20818817.088        3101.291
      2402.522
 88  3 27  4 36 32.0800000  0  4G 6G 9G11G13
  -4233662.889 9  -3444656.859 8  18646183.377    18646188.198        -534.266
      -428.925
 -11163468.954 9 -20316861.845 8  19142099.706    19142103.493        2166.840
      1691.156
  -9888064.470 9  -7738457.076 7  18833696.815    18833701.871         169.240
       143.041
 -28187918.384 9  21108330.421 9  20801197.977    20801203.677        3087.695
      2396.228
 88  3 27  4 37  2.0800000  0  4G 6G 9G11G13
  -4217067.625 8  -3431725.506 8  18649341.273    18649344.948        -570.661
      -434.772
 -11228284.663 9 -20367367.568 8  19129765.192    19129769.935        2160.181
      1662.560
  -9893369.177 9  -7742590.593 8  18832686.873    18832692.962         163.610
       114.999
 -28280122.369 9  21036483.205 8  20783651.101    20783657.233        3072.520
      2384.975
 88  3 27  4 37 32.0800000  0  4G 6G 9G11G13
  -4199940.223 9  -3418379.486 9  18652600.463    18652604.595        -572.359
      -445.740
 -11292739.776 9 -20417592.309 8  19117499.221    19117504.299        2148.531
      1673.329
  -9898153.895 8  -7746318.929 8  18831777.009    18831780.744         152.454
       103.677
 -28371968.294 9  20964914.996 8  20766173.700    20766179.260        3064.003
      2360.486
 88  3 27  4 38  2.0800000  0  4G 6G 9G11G13
  -4182279.671 9  -3404618.009 8  18655961.055    18655964.885        -598.555
      -452.680
 -11356831.244 9 -20467533.681 9  19105304.097    19105307.395        2119.137
      1663.964
  -9902419.287 8  -7749642.597 8  18830964.903    18830969.763         136.824
       104.081
 -28463454.256 9  20893627.284 9  20748764.414    20748771.320        3050.933
      2371.845
 88  3 27  4 38 32.0800000  0  4G 6G 9G11G13
  -4164084.850 8  -3390440.232 8  18659423.179    18659427.964        -600.134
      -475.299
 -11420556.270 9 -20517189.519 8  19093177.534    19093181.543        2108.500
      1662.212
  -9906166.259 8  -7752562.293 8  18830251.377    18830256.207         116.968
        97.687
 -28554578.007 9  20822621.806 8  20731424.148    20731430.167        3032.871
      2374.504
 88  3 27  4 39  2.0800000  0  4G 6G 9G11G13
  -4145355.198 9  -3375845.707 9  18662987.548    18662991.623        -621.944
      -490.013
 -11483912.244 9 -20566557.786 8  19081120.511    19081125.262        2117.176
      1642.980
  -9909396.275 8  -7755079.172 9  18829637.735    18829642.170         103.029
        84.936
 -28645338.078 9  20751899.721 8  20714153.237    20714159.259        3029.075
      2357.970
 88  3 27  4 39 32.0800000  0  4G 6G 9G11G13
  -4126089.600 8  -3360833.560 8  18666653.428    18666657.979        -645.604
      -500.750
 -11546896.068 9 -20615636.060 8  19069135.730    19069139.719        2098.922
      1634.020
  -9912110.254 8  -7757193.949 7  18829120.572    18829125.660          75.924
        56.347
 -28735732.193 9  20681462.787 8  20696952.087    20696957.830        3010.359
      2334.438
 88  3 27  4 40  2.0800000  0  4G 6G 9G11G13
  -4106287.184 8  -3345403.098 9  18670422.852    18670426.152        -654.822
      -511.450
 -11609504.733 9 -20664422.015 9  19057220.825    19057225.250        2087.463
      1617.001
  -9914308.996 9  -7758907.238 8  18828702.040    18828707.771          56.618
        60.957
 -28825758.826 9  20611312.198 8  20679820.484    20679825.944        2991.364
      2343.728
 88  3 27  4 40 32.0800000  0  4G 6G 9G11G13
  -4085947.358 8  -3329553.883 8  18674292.086    18674296.722        -676.297
      -537.629
 -11671735.611 9 -20712913.591 9  19045379.454    19045382.902        2062.240
      1603.914
  -9915993.736 9  -7760220.008 9  18828381.717    18828386.591          34.266
        24.315
 -28915416.511 9  20541449.105 8  20662758.583    20662764.786        2984.251
      2333.170
 88  3 27  4 41  2.0800000  0  4G 6G 9G11G13
  -4065069.060 9  -3313285.089 8  18678266.327    18678270.112        -695.810
      -551.001
 -11733585.887 8 -20761108.586 9  19033608.590    19033613.771        2062.368
      1600.932
  -9917165.431 8  -7761133.008 7  18828159.592    18828163.613          28.596
        15.820
 -29004703.555 9  20471874.840 8  20645768.539    20645774.676        2960.655
      2304.276
 88  3 27  4 41 32.0800000  0  4G 6G 9G11G13
  -4043651.696 9  -3296596.235 9  18682340.979    18682345.487        -723.155
      -560.577
 -11795052.571 9 -20809004.680 8  19021912.580    19021915.954        2041.084
      1588.759
  -9917825.400 7  -7761647.253 8  18828032.830    18828037.992          24.944
         8.152
 -29093617.759 9  20402591.095 8  20628848.940    20628853.620        2952.984
      2305.357
 88  3 27  4 42  2.0800000  0  4G 6G 9G11G13
  -4021694.364 8  -3279486.630 8  18686519.347    18686524.056        -754.199
      -585.693
 -11856133.025 9 -20856599.815 8  19010289.367    19010294.069        2029.522
      1585.118
  -9917974.405 8  -7761763.330 9  18828004.797    18828009.303           3.501
       -13.633
 -29182158.544 9  20333598.315 8  20611999.777    20612006.207        2949.284
      2287.654
 88  3 27  4 42 32.0800000  0  4G 6G 9G11G13
  -3999196.581 9  -3261955.892 8  18690800.323    18690804.341        -751.615
      -589.433
 -11916824.488 9 -20903891.851 9  18998740.479    18998744.797        2004.969
      1567.067
  -9917613.749 8  -7761482.293 7  18828073.693    18828078.451         -15.430
       -15.155
 -29270323.432 8  20264898.440 9  20595222.677    20595228.304        2929.005
      2289.500
 88  3 27  4 43  2.0800000  0  4G 6G 9G11G13
  -3976157.446 9  -3244003.315 7  18695185.303    18695188.449        -760.809
      -613.288
 -11977123.844 9 -20950878.349 8  18987265.910    18987269.050        2002.504
      1572.454
  -9916744.801 9  -7760805.173 8  18828238.462    18828243.288         -41.594
       -16.491
 -29358110.606 9  20196492.882 8  20578515.929    20578523.014        2914.508
      2275.376
 88  3 27  4 43 32.0800000  0  4G 6G 9G11G13
  -3952576.514 9  -3225628.577 9  18699671.127    18699676.268        -796.255
      -623.236
 -12037028.603 9 -20997557.352 9  18975866.550    18975870.572        2003.007
      1550.550
  -9915369.037 9  -7759733.146 8  18828500.799    18828505.906         -36.969
       -41.160
 -29445519.300 9  20128382.266 9  20561883.184    20561889.512        2913.790
      2270.604
 88  3 27  4 44  2.0800000  0  4G 6G 9G11G13
  -3928453.119 8  -3206831.133 8  18704261.991    18704266.447        -804.884
      -636.198
 -12096535.862 9 -21043926.630 9  18964542.669    18964546.053        1967.792
      1544.181
  -9913487.376 9  -7758266.913 7  18828858.717    18828863.577         -63.851
       -61.361
 -29532547.609 8  20060568.041 8  20545322.557    20545328.487        2899.811
      2249.756
 88  3 27  4 44 32.0800000  0  4G 6G 9G11G13
  -3903786.586 8  -3187610.470 9  18708957.109    18708961.233        -828.336
      -648.918
 -12155643.132 9 -21089984.219 8  18953294.389    18953298.276        1964.188
      1535.681
  -9911101.145 8  -7756407.497 7  18829312.863    18829317.737         -84.464
       -69.116
 -29619193.490 9  19993051.814 8  20528834.271    20528840.374        2881.494
      2253.013
 88  3 27  4 45  2.0800000  0  4G 6G 9G11G13
  -3878576.633 9  -3167966.360 8  18713753.414    18713757.154        -835.505
      -659.985
 -12214347.489 9 -21135727.856 8  18942123.034    18942127.458        1957.561
      1516.959
  -9908211.411 9  -7754155.737 8  18829862.399    18829866.862        -113.052
       -86.701
 -29705455.659 9  19925834.572 8  20512418.937    20512425.109        2862.188
      2238.025
 88  3 27  4 45 32.0800000  0  4G 6G 9G11G13
  -3852822.480 8  -3147898.190 8  18718654.464    18718659.323        -871.789
      -693.284
 -12272646.246 9 -21181155.445 9  18931029.021    18931033.606        1934.754
      1521.986
  -9904819.733 9  -7751512.859 7  18830507.816    18830513.167        -128.602
       -97.351
 -29791332.908 9  19858917.277 8  20496077.833    20496083.093        2856.861
      2237.913
 88  3 27  4 46  2.0800000  0  4G 6G 9G11G13
  -3826523.732 8  -3127405.669 9  18723658.999    18723662.926        -891.732
      -691.128
 -12330536.641 9 -21226264.824 9  18920013.047    18920017.195        1922.378
      1496.372
  -9900927.386 8  -7748479.849 7  18831248.622    18831253.051        -155.771
       -88.267
 -29876823.704 9  19792301.116 9  20479809.246    20479814.700        2848.440
      2221.720
 88  3 27  4 46 32.0800000  0  4G 6G 9G11G13
  -3799680.098 8  -3106488.540 9  18728766.834    18728772.041        -893.391
      -706.675
 -12388016.173 9 -21271054.047 8  18909074.830    18909078.859        1892.857
      1483.541
  -9896536.015 8  -7745057.988 7  18832084.149    18832089.118        -147.302
      -117.080
 -29961927.204 9  19725986.733 9  20463613.860    20463619.668        2832.611
      2185.978
 88  3 27  4 47  2.0800000  0  4G 6G 9G11G13
  -3772291.081 9  -3085146.464 9  18733979.640    18733983.864        -923.813
      -723.166
 -12445082.004 9 -21315520.904 9  18898216.366    18898220.129        1898.686
      1474.084
  -9891646.756 9  -7741248.158 8  18833014.818    18833017.473        -182.932
      -135.299
 -30046640.810 9  19659976.168 9  20447493.546    20447500.514        2819.342
      2194.827
 88  3 27  4 47 32.0800000  0  4G 6G 9G11G13
  -3744356.364 9  -3063379.162 8  18739293.958    18739299.016        -927.545
      -716.698
 -12501731.667 9 -21359663.484 9  18887435.720    18887439.552        1879.085
      1466.186
  -9886261.423 9  -7737051.791 8  18834039.517    18834044.139        -170.994
      -148.193
 -30130964.259 9  19594269.625 8  20431447.505    20431453.376        2800.586
      2186.183
 88  3 27  4 48  2.0800000  0  4G 6G 9G11G13
  -3715875.461 9  -3041186.264 8  18744714.802    18744719.637        -973.533
      -748.022
 -12557962.169 9 -21403479.443 8  18876735.128    18876740.437        1881.246
      1458.176
  -9880381.530 9  -7732470.030 9  18835158.869    18835163.030        -206.751
      -147.304
 -30214895.894 9  19528868.384 8  20415475.518    20415482.001        2811.112
      2192.024
 88  3 27  4 48 32.0800000  0  4G 6G 9G11G13
  -3686847.931 9  -3018567.423 8  18750239.523    18750242.921        -987.154
      -748.506
 -12613770.836 9 -21446966.698 8  18866116.213    18866119.274        1848.248
      1436.677
  -9874008.011 8  -7727503.647 8  18836371.245    18836375.775        -215.778
      -162.211
 -30298433.967 9  19463773.814 8  20399578.956    20399584.490        2780.762
      2160.551
 88  3 27  4 49  2.0800000  0  4G 6G 9G11G13
  -3657273.179 9  -2995522.170 8  18755866.526    18755870.452        -991.667
      -781.191
 -12669154.972 9 -21490123.152 8  18855576.227    18855580.243        1832.930
      1435.210
  -9867142.365 9  -7722153.777 8  18837677.870    18837683.144        -238.577
      -179.914
 -30381576.824 9  19398987.206 8  20383757.249    20383762.949        2767.134
      2144.476
 88  3 27  4 49 32.0800000  0  4G 6G 9G11G13
  -3627150.772 8  -2972050.169 8  18761598.359    18761603.124        -995.590
      -787.144
 -12724111.400 9 -21532946.333 8  18845117.339    18845122.758        1824.006
      1429.015
  -9859785.548 9  -7716421.184 9  18839077.705    18839081.989        -246.575
      -208.640
 -30464323.263 9  19334509.501 8  20368011.453    20368016.487        2736.624
      2144.744
 88  3 27  4 50  2.0800000  0  4G 6G 9G11G13
  -3596480.431 8  -2948151.216 8  18767435.140    18767439.573       -1026.132
      -802.939
 -12778637.833 8 -21575434.446 9  18834742.571    18834746.990        1806.200
      1412.027
  -9851939.240 8  -7710307.162 8  18840570.778    18840574.899        -281.128
      -215.053
 -30546671.543 9  19270342.047 7  20352340.548    20352347.085        2742.772
      2133.093
 88  3 27  4 50 32.0800000  0  4G 6G 9G11G13
  -3565261.517 9  -2923824.809 8  18773376.426    18773380.737       -1051.562
      -806.444
 -12832731.065 9 -21617584.997 9  18824448.105    18824452.982        1797.141
      1398.306
  -9843604.760 9  -7703812.760 9  18842157.087    18842161.803        -278.568
      -211.629
 -30628620.520 9  19206485.744 8  20336746.400    20336752.379        2731.895
      2125.667
 88  3 27  4 51  2.0800000  0  4G 6G 9G11G13
  -3533494.024 9  -2899070.939 8  18779420.802    18779425.358       -1080.150
      -837.817
 -12886388.619 9 -21659396.055 9  18814237.667    18814242.290        1784.390
      1380.485
  -9834784.095 9  -7696939.501 8  18843835.029    18843840.561        -293.097
      -238.560
 -30710168.246 9  19142942.093 8  20321227.699    20321234.665        2727.190
      2121.740
 88  3 27  4 51 32.0800000  0  4G 6G 9G11G13
  -3501177.529 9  -2873889.266 8  18785570.755    18785573.794       -1075.063
      -846.572
 -12939607.656 9 -21700865.412 8  18804110.621    18804114.796        1766.631
      1378.292
  -9825478.290 8  -7689688.219 7  18845606.077    18845610.492        -311.080
      -243.332
 -30791314.157 9  19079711.550 8  20305786.548    20305792.027        2705.045
      2105.298
 88  3 27  4 52  2.0800000  0  4G 6G 9G11G13
  -3468311.311 9  -2848279.263 8  18791825.426    18791828.593       -1095.366
      -856.887
 -12992385.434 9 -21741990.947 8  18794067.198    18794071.106        1761.822
      1363.814
  -9815688.539 8  -7682059.830 8  18847469.484    18847474.172        -347.076
      -264.999
 -30872055.970 9  19016795.891 7  20290422.287    20290427.897        2680.181
      2087.968
 88  3 27  4 52 32.0800000  0  4G 6G 9G11G13
  -3434895.375 8  -2822240.880 9  18798183.467    18798188.850       -1113.778
      -886.030
 -13044719.020 8 -21782770.349 8  18784109.179    18784112.484        1735.539
      1347.366
  -9805416.482 9  -7674055.623 8  18849423.976    18849427.595        -356.023
      -283.597
 -30952392.764 9  18954195.839 8  20275135.118    20275140.677        2664.368
      2085.899
 88  3 27  4 53  2.0800000  0  4G 6G 9G11G13
  -3400929.750 9  -2795774.177 9  18804647.204    18804651.592       -1137.159
      -887.310
 -13096606.262 9 -21823201.941 8  18774234.955    18774238.903        1718.761
      1337.933
  -9794664.132 8  -7665677.168 9  18851470.029    18851474.045        -356.278
      -281.192
 -31032323.918 9  18891911.851 8  20259923.532    20259930.660        2654.464
      2073.223
 88  3 27  4 53 32.0800000  0  4G 6G 9G11G13
  -3366413.984 8  -2768878.790 8  18811215.252    18811220.230       -1160.755
      -896.208
 -13148043.868 8 -21863283.190 8  18764447.215    18764451.629        1697.908
      1334.367
  -9783432.734 8  -7656925.406 7  18853606.905    18853611.011        -385.345
      -306.023
 -31111847.246 8  18829945.652 8  20244791.359    20244797.053        2665.684
      2059.403
 88  3 27  4 54  2.0800000  0  4G 6G 9G11G13
  -3331347.555 9  -2741554.309 8  18817888.247    18817892.429       -1184.096
      -909.574
 -13199029.137 9 -21903011.958 8  18754744.325    18754749.486        1688.235
      1323.356
  -9771723.450 8  -7647801.289 8  18855835.702    18855840.509        -403.351
      -319.594
 -31190961.570 9  18768298.169 8  20229736.639    20229741.641        2624.169
      2054.352
 88  3 27  4 54 32.0800000  0  4G 6G 9G11G13
  -3295730.873 9  -2713801.072 8  18824665.832    18824671.164       -1190.962
      -940.624
 -13249559.923 9 -21942386.576 8  18745128.331    18745132.474        1675.564
      1312.892
  -9759538.292 9  -7638306.343 8  18858154.201    18858158.750        -416.094
      -321.868
 -31269666.197 9  18706969.916 9  20214758.775    20214765.024        2606.626
      2025.874
 88  3 27  4 55  2.0800000  0  4G 6G 9G11G13
  -3259563.401 8  -2685618.635 8  18831547.816    18831553.297       -1219.191
      -947.757
 -13299633.047 8 -21981404.585 9  18735599.873    18735603.863        1667.669
      1298.389
  -9746878.698 7  -7628441.713 8  18860562.906    18860567.356        -415.695
      -330.157
 -31347958.832 9  18645962.711 9  20199860.659    20199866.709        2588.755
      2032.038
 88  3 27  4 55 32.0800000  0  4G 6G 9G11G13
  -3222845.087 9  -2657006.970 8  18838535.882    18838539.626       -1222.955
      -967.256
 -13349245.823 9 -22020063.880 8  18726159.482    18726163.887        1640.038
      1279.462
  -9733746.051 9  -7618208.475 9  18863062.294    18863067.092        -442.035
      -343.417
 -31425838.088 9  18585277.605 8  20185040.523    20185047.310        2587.232
      2022.419
 88  3 27  4 56  2.0800000  0  4G 6G 9G11G13
  -3185575.798 9  -2627965.985 8  18845628.171    18845632.242       -1262.787
      -963.690
 -13398395.718 8 -22058362.486 8  18716805.720    18716810.500        1638.100
      1267.382
  -9720142.266 8  -7607608.115 8  18865650.286    18865655.469        -466.843
      -347.959
 -31503303.620 9  18524914.904 8  20170299.065    20170304.933        2570.765
      2023.649
 88  3 27  4 56 32.0800000  0  4G 6G 9G11G13
  -3147755.444 9  -2598495.597 8  18852824.535    18852829.251       -1268.983
      -990.216
 -13447080.072 9 -22096298.337 8  18707542.216    18707545.714        1631.569
      1248.921
  -9706068.713 8  -7596641.699 9  18868328.219    18868333.249        -486.316
      -382.732
 -31580353.871 9  18464875.783 7  20155636.876    20155643.919        2568.588
      1986.951
 88  3 27  4 57  2.0800000  0  4G 6G 9G11G13
  -3109384.147 8  -2568595.899 8  18860126.391    18860130.728       -1291.168
     -1009.311
 -13495296.387 9 -22133869.484 9  18698366.780    18698370.508        1596.458
      1253.264
  -9691527.240 9  -7585310.674 8  18871096.394    18871100.275        -487.847
      -378.239
 -31656987.703 9  18405161.136 8  20141054.041    20141060.344        2542.033
      1990.468
 88  3 27  4 57 32.0800000  0  4G 6G 9G11G13
  -3070461.694 9  -2538266.734 8  18867533.521    18867537.167       -1298.082
     -1019.017
 -13543041.844 9 -22171073.727 8  18689280.522    18689284.269        1576.227
      1226.526
  -9676519.140 9  -7573616.035 8  18873951.343    18873956.675        -488.270
      -392.152
 -31733204.130 9  18345771.751 8  20126550.944    20126556.013        2537.600
      1980.818
 88  3 27  4 58  2.0800000  0  4G 6G 9G11G13
  -3030988.036 9  -2507508.058 9  18875044.782    18875048.460       -1323.759
     -1028.487
 -13590313.805 9 -22207909.006 8  18680284.942    18680290.056        1577.519
      1211.526
  -9661046.375 9  -7561559.335 8  18876895.496    18876900.416        -533.333
      -403.635
 -31809001.843 9  18286708.620 8  20112127.172    20112131.975        2518.533
      1971.733
 88  3 27  4 58 32.0800000  0  4G 6G 9G11G13
  -2990963.201 9  -2476319.885 9  18882661.644    18882665.560       -1350.027
     -1038.087
 -13637109.478 8 -22244373.152 8  18671380.466    18671385.007        1560.789
      1198.359
  -9645110.787 9  -7549141.993 8  18879928.590    18879932.654        -530.590
      -419.754
 -31884379.665 9  18227972.690 9  20097782.991    20097788.300        2510.232
      1955.546
 88  3 27  4 59  2.0800000  0  4G 6G 9G11G13
  -2950387.339 9  -2444702.359 9  18890382.695    18890386.571       -1358.041
     -1066.037
 -13683426.754 9 -22280464.529 8  18662566.340    18662571.696        1547.679
      1191.518
  -9628713.802 9  -7536365.107 8  18883049.157    18883053.724        -549.425
      -420.928
 -31959336.724 9  18169564.629 8  20083519.205    20083525.498        2516.356
      1938.813
 88  3 27  4 59 32.0800000  0  4G 6G 9G11G13
  -2909260.363 9  -2412655.384 9  18898209.357    18898213.630       -1368.774
     -1083.640
 -13729262.439 8 -22316180.644 8  18653844.070    18653848.341        1547.264
      1185.801
  -9611856.627 9  -7523229.637 9  18886256.395    18886262.369        -572.447
      -441.415
 -32033871.740 9  18111485.435 8  20069335.197    20069341.549        2481.939
      1933.208
 88  3 27  5  0  2.0800000  0  4G 6G 9G11G13
  -2867582.332 9  -2380179.018 9  18906140.082    18906144.527       -1387.139
     -1094.863
 -13774614.247 9 -22351519.715 8  18645214.137    18645217.601        1512.967
      1173.088
  -9594541.554 8  -7509737.372 8  18889551.763    18889557.749        -587.965
      -457.981
 -32107983.252 9  18053736.243 8  20055231.219    20055238.201        2464.890
      1939.328
 88  3 27  5  0 32.0800000  0  4G 6G 9G11G13
  -2825353.042 9  -2347273.084 9  18914176.875    18914180.655       -1414.077
     -1106.209
 -13819479.189 8 -22386479.403 8  18636676.563    18636680.909        1477.856
      1155.167
  -9576769.916 9  -7495889.335 9  18892933.038    18892938.580        -606.099
      -472.142
 -32181669.547 9  17996318.376 8  20041209.990    20041215.504        2450.145
      1915.076
 88  3 27  5  1  2.0800000  0  4G 6G 9G11G13
  -2782573.054 9  -2313938.058 9  18922316.978    18922321.554       -1445.225
     -1118.065
 -13863855.129 9 -22421058.049 8  18628232.623    18628236.350        1458.494
      1147.972
  -9558543.891 8  -7481687.229 8  18896401.365    18896406.501        -606.011
      -488.161
 -32254930.836 8  17939231.700 8  20027269.306    20027275.057        2449.826
      1889.077
 88  3 27  5  1 32.0800000  0  4G 6G 9G11G13
  -2739242.414 9  -2280173.943 9  18930562.164    18930567.880       -1439.443
     -1130.468
 -13907739.383 9 -22455253.571 8  18619881.115    18619884.791        1453.614
      1128.690
  -9539865.048 8  -7467132.281 8  18899956.597    18899961.232        -641.649
      -496.711
 -32327765.870 9  17882477.168 9  20013409.205    20013415.136        2415.002
      1889.991
 88  3 27  5  2  2.0800000  0  4G 6G 9G11G13
  -2695361.168 8  -2245980.774 8  18938912.951    18938917.493       -1470.312
     -1138.378
 -13951129.159 9 -22489063.773 9  18611624.534    18611629.264        1453.342
      1108.085
  -9520734.736 9  -7452225.535 8  18903595.868    18903600.781        -646.473
      -510.071
 -32400172.972 8  17826056.086 8  19999630.396    19999636.515        2432.091
      1887.257
 88  3 27  5  2 32.0800000  0  4G 6G 9G11G13
  -2650929.419 9  -2211358.644 8  18947367.990    18947371.829       -1488.892
     -1162.145
 -13994021.925 8 -22522486.705 8  18603462.657    18603466.133        1432.170
      1110.528
  -9501154.906 8  -7436968.515 8  18907322.092    18907327.738        -666.608
      -504.795
 -32472152.018 9  17769968.542 8  19985933.078    19985939.095        2403.646
      1863.707
 88  3 27  5  3  2.0800000  0  4G 6G 9G11G13
  -2605947.254 9  -2176307.633 9  18955927.362    18955932.476       -1507.759
     -1177.344
 -14036415.137 9 -22555520.370 8  18595395.205    18595398.616        1397.745
      1101.418
  -9481127.291 8  -7421362.584 9  18911133.319    18911139.170        -662.422
      -529.787
 -32543701.138 9  17714216.018 9  19972317.562    19972323.739        2386.494
      1853.069
 88  3 27  5  3 32.0800000  0  4G 6G 9G11G13
  -2560414.976 9  -2140827.940 8  18964592.033    18964596.526       -1533.237
     -1190.530
 -14078306.332 9 -22588162.851 8  18587423.872    18587427.349        1383.662
      1071.797
  -9460653.789 9  -7405409.184 9  18915028.899    18915034.567        -690.436
      -540.966
 -32614818.827 9  17658799.667 9  19958784.016    19958789.816        2363.456
      1830.438
 88  3 27  5  4  2.0800000  0  4G 6G 9G11G13
  -2514332.857 9  -2104919.813 8  18973361.195    18973365.685       -1543.644
     -1213.390
 -14119692.999 8 -22620412.201 8  18579548.202    18579551.637        1369.428
      1062.240
  -9439736.021 9  -7389109.631 7  18919010.066    18919013.925        -702.844
      -552.741
 -32685504.739 8  17603719.768 9  19945333.059    19945340.102        2352.730
      1816.606
 88  3 27  5  4 32.0800000  0  4G 6G 9G11G13
  -2467701.332 9  -2068583.586 8  18982235.137    18982239.265       -1558.963
     -1222.624
 -14160572.483 9 -22652266.320 8  18571769.430    18571773.540        1351.765
      1036.813
  -9418375.989 8  -7372465.442 7  18923074.139    18923080.266        -695.755
      -566.790
 -32755757.997 9  17548977.011 8  19931964.901    19931970.334        2322.890
      1824.063
 88  3 27  5  5  2.0800000  0  4G 6G 9G11G13
  -2420520.516 9  -2031819.321 9  18991212.864    18991218.392       -1582.479
     -1222.705
 -14200942.380 9 -22683723.383 7  18564086.189    18564091.278        1343.966
      1050.931
  -9396575.577 9  -7355478.111 8  18927223.186    18927228.550        -733.433
      -569.966
 -32825577.493 9  17494572.230 8  19918678.831    19918684.885        2320.171
      1810.529
 88  3 27  5  5 32.0800000  0  4G 6G 9G11G13
  -2372790.926 9  -1994627.462 8  19000296.672    19000300.660       -1601.386
     -1241.999
 -14240800.443 8 -22714781.612 8  18556502.122    18556506.327        1329.995
      1017.836
  -9374336.555 9  -7338148.997 8  18931455.726    18931459.290        -744.175
      -580.952
 -32894962.184 9  17440506.260 8  19905474.738    19905481.041        2309.908
      1809.106
 88  3 27  5  6  2.0800000  0  4G 6G 9G11G13
  -2324512.810 9  -1957008.166 9  19009483.568    19009487.171       -1605.326
     -1269.035
 -14280143.976 8 -22745438.909 7  18549015.117    18549018.851        1306.933
      1014.170
  -9351660.773 8  -7320479.556 8  18935769.791    18935775.680        -731.248
      -587.818
 -32963911.445 9  17386779.604 7  19892354.221    19892360.570        2287.811
      1778.006
 88  3 27  5  6 32.0800000  0  4G 6G 9G11G13
  -2275686.767 9  -1918961.915 9  19018774.998    19018778.551       -1641.123
     -1270.464
 -14318970.895 9 -22775693.637 8  18541626.914    18541630.857        1288.122
      1012.872
  -9328550.053 8  -7302471.194 9  18940167.751    18940173.676        -763.289
      -595.231
 -33032424.767 9  17333392.626 8  19879317.756    19879322.800        2273.609
      1779.740
 88  3 27  5  7  2.0800000  0  4G 6G 9G11G13
  -2226313.248 9  -1880489.072 9  19028169.443    19028174.061       -1653.770
     -1280.568
 -14357278.524 8 -22805543.733 8  18534336.591    18534341.183        1270.347
       986.183
  -9305006.436 9  -7284125.523 8  18944647.474    18944653.281        -786.455
      -608.466
 -33100500.864 9  17280346.360 9  19866362.771    19866368.537        2275.251
      1774.713
 88  3 27  5  7 32.0800000  0  4G 6G 9G11G13
  -2176392.801 9  -1841590.034 9  19037669.300    19037673.006       -1662.510
     -1302.353
 -14395064.883 8 -22834987.653 8  18527146.240    18527150.843        1256.168
       968.064
  -9281032.009 9  -7265444.145 8  18949209.871    18949214.867        -806.287
      -635.285
 -33168139.302 8  17227641.119 8  19853490.510    19853496.860        2247.206
      1765.007
 88  3 27  5  8  2.0800000  0  4G 6G 9G11G13
  -2125925.700 9  -1802265.057 8  19047272.586    19047277.813       -1703.849
     -1312.494
 -14432327.345 8 -22864023.330 9  18520054.930    18520059.902        1240.188
       958.072
  -9256628.575 8  -7246428.489 8  18953854.970    18953859.623        -815.410
      -640.262
 -33235339.049 9  17175277.711 8  19840703.817    19840709.051        2243.840
      1743.035
 88  3 27  5  8 32.0800000  0  4G 6G 9G11G13
  -2074912.522 9  -1762514.538 8  19056980.385    19056985.131       -1723.872
     -1337.449
 -14469063.629 8 -22892648.992 7  18513065.404    18513069.354        1211.743
       950.187
  -9231797.950 8  -7227079.955 8  18958578.288    18958584.267        -839.764
      -650.384
 -33302099.314 8  17123256.751 8  19828000.048    19828004.164        2209.670
      1733.236
 88  3 27  5  9  2.0800000  0  4G 6G 9G11G13
  -2023353.751 9  -1722338.900 8  19066791.495    19066795.980       -1721.089
     -1348.578
 -14505271.092 8 -22920862.612 8  18506173.992    18506179.118        1194.646
       931.285
  -9206542.213 8  -7207400.155 8  18963385.127    18963390.341        -837.379
      -660.314
 -33368419.657 9  17071578.595 9  19815378.615    19815384.699        2200.436
      1717.714
 88  3 27  5  9 32.0800000  0  4G 6G 9G11G13
  -1971249.697 9  -1681738.375 9  19076706.722    19076710.972       -1738.178
     -1350.889
 -14540947.501 8 -22948662.403 8  18499385.570    18499390.357        1167.797
       931.838
  -9180862.927 9  -7187390.321 9  18968272.747    18968277.283        -864.819
      -674.469
 -33434298.909 9  17020244.151 9  19802842.444    19802847.803        2200.619
      1705.472
 88  3 27  5 10  2.0800000  0  4G 6G 9G11G13
  -1918600.711 9  -1640713.215 9  19086725.022    19086729.544       -1771.424
     -1377.136
 -14576090.206 8 -22976046.328 8  18492697.842    18492702.311        1151.082
       911.792
  -9154762.054 9  -7167051.988 9  18973238.256    18973244.502        -884.747
      -676.283
 -33499735.715 9  16969254.462 9  19790389.356    19790396.056        2164.017
      1708.896
 88  3 27  5 10 32.0800000  0  4G 6G 9G11G13
  -1865407.708 9  -1599264.149 8  19096847.414    19096852.708       -1788.776
     -1381.262
 -14610697.014 9 -23003012.660 8  18486112.313    18486117.225        1137.024
       887.341
  -9128241.614 8  -7146386.704 8  18978284.520    18978290.332        -883.718
      -694.832
 -33564729.285 9  16918610.163 8  19778022.078    19778027.557        2167.183
      1668.650
 88  3 27  5 11  2.0800000  0  4G 6G 9G11G13
  -1811671.571 9  -1557391.852 9  19107074.301    19107077.769       -1792.452
     -1396.946
 -14644765.744 8 -23029559.720 8  18479629.813    18479635.106        1121.075
       872.204
  -9101303.653 8  -7125396.078 9  18983411.756    18983416.447        -910.169
      -707.545
 -33629280.019 9  16868310.916 9  19765738.659    19765744.349        2140.620
      1679.232
 88  3 27  5 11 32.0800000  0  4G 6G 9G11G13
  -1757392.954 9  -1515096.862 9  19117402.930    19117407.210       -1821.040
     -1415.954
 -14678294.054 8 -23055685.678 8  18473250.301    18473254.051        1120.365
       863.884
  -9073950.237 9  -7104081.744 9  18988617.074    18988622.353        -914.563
      -711.783
 -33693386.560 9  16818357.802 9  19753539.428    19753545.261        2120.397
      1662.703
 88  3 27  5 12  2.0800000  0  4G 6G 9G11G13
  -1702571.559 9  -1472378.924 8  19127835.087    19127839.079       -1834.868
     -1428.089
 -14711279.401 9 -23081388.546 8  18466973.138    18466977.404        1085.023
       852.525
  -9046182.762 8  -7082444.744 9  18993900.504    18993905.320        -933.725
      -716.673
 -33757047.952 9  16768751.551 8  19741424.835    19741430.969        2117.861
      1645.460
 88  3 27  5 12 32.0800000  0  4G 6G 9G11G13
  -1647207.824 9  -1429238.374 9  19138369.407    19138374.292       -1847.228
     -1447.339
 -14743719.978 8 -23106666.920 8  18460799.670    18460803.140        1092.152
       845.516
  -9018003.636 8  -7060486.990 9  18999262.681    18999268.248        -940.312
      -733.450
 -33820263.971 8  16719492.350 9  19729395.070    19729400.791        2098.540
      1632.237
 88  3 27  5 13  2.0800000  0  4G 6G 9G11G13
  -1591303.214 9  -1385676.369 9  19149009.595    19149012.339       -1874.572
     -1454.293
 -14775613.116 8 -23131518.710 9  18454729.337    18454735.376        1057.830
       815.410
  -8989414.770 9  -7038209.943 8  19004703.083    19004708.501        -972.537
      -746.816
 -33883033.702 9  16670580.893 9  19717451.057    19717457.122        2085.661
      1622.444
 88  3 27  5 13 32.0800000  0  4G 6G 9G11G13
  -1534858.594 9  -1341693.584 8  19159749.223    19159754.190       -1887.498
     -1467.988
 -14806957.180 9 -23155942.663 7  18448765.959    18448770.373        1030.510
       799.198
  -8960418.352 9  -7015615.342 8  19010221.408    19010226.681        -990.670
      -756.938
 -33945356.736 9  16622017.512 9  19705591.347    19705596.222        2074.433
      1610.569
 88  3 27  5 14  2.0800000  0  4G 6G 9G11G13
  -1477874.903 9  -1297290.729 8  19170593.020    19170598.067       -1899.619
     -1482.907
 -14837749.995 9 -23179937.071 8  18442906.746    18442910.228        1017.002
       793.631
  -8931016.612 9  -6992704.898 9  19015815.365    19015822.016        -995.726
      -768.881
 -34007232.799 9  16573802.426 8  19693816.566    19693821.834        2047.217
      1597.185
 88  3 27  5 14 32.0800000  0  4G 6G 9G11G13
  -1420352.486 9  -1252468.101 8  19181539.155    19181543.955       -1916.150
     -1491.377
 -14867988.773 8 -23203499.755 7  18437151.039    18437155.459         998.294
       775.996
  -8901211.050 9  -6969479.789 9  19021487.930    19021493.378        -981.667
      -788.125
 -34068660.894 9  16525936.399 8  19682126.967    19682132.534        2042.663
      1593.693
 88  3 27  5 15  2.0800000  0  4G 6G 9G11G13
  -1362292.524 9  -1207226.600 8  19192588.078    19192591.942       -1936.580
     -1517.046
 -14897671.920 8 -23226629.483 8  18431503.764    18431507.828         959.132
       759.418
  -8871004.537 9  -6945942.246 9  19027235.834    19027241.254       -1016.108
      -785.646
 -34129641.005 9  16478419.461 9  19670522.476    19670528.360        2023.046
      1562.344
 88  3 27  5 15 32.0800000  0  4G 6G 9G11G13
  -1303695.562 9  -1161566.661 9  19203738.873    19203743.134       -1965.057
     -1543.945
 -14926797.114 9 -23249324.436 8  18425960.842    18425965.107         978.773
       740.279
  -8840398.620 9  -6922093.489 9  19033060.732    19033065.797       -1022.998
      -796.234
 -34190171.801 8  16431252.631 8  19659004.619    19659009.350        2001.914
      1572.150
 88  3 27  5 16  2.0800000  0  4G 6G 9G11G13
  -1244562.561 9  -1115489.023 9  19214991.199    19214994.982       -1979.052
     -1533.935
 -14955362.287 8 -23271583.009 8  18420525.461    18420528.788         939.363
       740.565
  -8809395.400 9  -6897935.133 8  19038959.278    19038964.713       -1044.824
      -806.947
 -34250253.839 9  16384435.502 9  19647571.029    19647576.644        1993.422
      1563.630
 88  3 27  5 16 32.0800000  0  4G 6G 9G11G13
  -1184894.304 9  -1068994.291 9  19226346.490    19226349.915       -1991.245
     -1551.159
 -14983365.286 8 -23293403.534 9  18415196.012    18415200.258         927.322
       726.286
  -8777996.989 9  -6873468.836 9  19044935.462    19044940.363       -1057.982
      -810.526
 -34309885.787 9  16337969.072 9  19636223.468    19636228.926        1977.026
      1548.487
 88  3 27  5 17  2.0800000  0  4G 6G 9G11G13
  -1124691.765 9  -1022083.258 9  19237802.678    19237806.429       -1999.689
     -1561.754
 -15010804.271 8 -23314784.565 8  18409974.393    18409978.468         893.614
       713.330
  -8746205.210 9  -6848696.032 8  19050984.675    19050989.800       -1064.991
      -835.400
 -34369067.371 8  16291853.588 8  19624961.839    19624967.125        1987.138
      1535.507
 88  3 27  5 17 32.0800000  0  4G 6G 9G11G13
  -1063956.151 9   -974756.834 8  19249358.800    19249364.315       -2019.131
     -1591.400
 -15037677.062 8 -23335724.399 8  18404860.399    18404864.178         888.511
       698.914
  -8714022.363 9  -6823618.498 8  19057109.601    19057114.231       -1064.776
      -843.857
 -34427798.265 9  16246089.283 9  19613785.990    19613791.291        1942.569
      1521.321
 88  3 27  5 18  2.0800000  0  4G 6G 9G11G13
  -1002688.062 9   -927015.491 9  19261018.085    19261023.257       -2045.223
     -1600.478
 -15063981.913 8 -23356221.682 8  18399855.379    18399860.153         881.501
       675.084
  -8681450.889 8  -6798238.131 9  19063307.926    19063312.257       -1098.348
      -844.217
 -34486077.872 9  16200676.635 8  19602695.672    19602700.585        1926.485
      1526.609
 88  3 27  5 18 32.0800000  0  4G 6G 9G11G13
   -940888.501 9   -878859.982 9  19272778.559    19272783.125       -2063.724
     -1611.930
 -15089716.155 7 -23376274.336 9  18394957.362    18394962.988         836.749
       671.555
  -8648492.699 9  -6772556.425 8  19069578.296    19069584.224       -1099.879
      -864.350
 -34543905.873 9  16155615.878 9  19591691.335    19591696.567        1916.533
      1504.444
 88  3 27  5 19  2.0800000  0  4G 6G 9G11G13
   -878558.740 9   -830291.371 9  19284639.127    19284644.083       -2091.068
     -1631.069
 -15114878.567 7 -23395881.416 7  18390169.755    18390174.900         829.469
       653.460
  -8615149.778 9  -6746574.931 9  19075923.968    19075928.627       -1128.427
      -866.972
 -34601282.071 9  16110907.185 9  19580771.814    19580778.778        1908.511
      1482.050
 88  3 27  5 19 32.0800000  0  4G 6G 9G11G13
   -815699.959 8   -781310.528 9  19296600.540    19296606.373       -2113.117
     -1641.278
 -15139467.218 8 -23415041.413 7  18385490.738    18385495.372         825.617
       626.312
  -8581424.245 9  -6720295.294 8  19082341.633    19082346.459       -1127.662
      -886.490
 -34658206.245 9  16066550.710 9  19569939.827    19569945.656        1887.084
      1474.469
 88  3 27  5 20  2.0800000  0  4G 6G 9G11G13
   -752312.927 9   -731918.055 9  19308662.378    19308668.125       -2122.949
     -1648.206
 -15163479.589 8 -23433752.347 7  18380921.372    18380925.947         793.720
       623.615
  -8547318.573 8  -6693719.451 9  19088831.510    19088837.231       -1148.586
      -889.746
 -34714677.649 9  16022547.050 8  19559194.299    19559199.400        1881.087
      1474.195
 88  3 27  5 20 32.0800000  0  4G 6G 9G11G13
   -688398.648 9   -682114.741 8  19320825.653    19320830.061       -2142.255
     -1665.785
 -15186913.905 8 -23452012.866 9  18376463.291    18376465.605         777.077
       593.131
  -8512834.597 9  -6666848.829 9  19095393.839    19095398.610       -1146.401
      -904.429
 -34770695.602 9  15978896.723 8  19548534.302    19548539.376        1871.565
      1449.123
 88  3 27  5 21  2.0800000  0  4G 6G 9G11G13
   -623958.440 9   -631901.620 8  19333088.582    19333093.181       -2162.000
     -1676.957
 -15209768.505 7 -23469821.668 8  18372113.194    18372117.196         727.931
       589.806
  -8477974.681 8  -6639685.254 9  19102027.233    19102032.273       -1162.629
      -913.700
 -34826260.748 9  15935599.227 9  19537959.975    19537965.818        1836.478
      1436.851
 88  3 27  5 21 32.0800000  0  4G 6G 9G11G13
   -558993.346 9   -581279.503 8  19345450.724    19345455.227       -2179.655
     -1690.535
 -15232041.565 8 -23487177.287 7  18367874.379    18367878.322         733.736
       565.927
  -8442740.973 8  -6612230.428 8  19108732.430    19108736.562       -1186.098
      -915.912
 -34881372.669 9  15892654.897 8  19527472.697    19527478.631        1833.480
      1423.236
 88  3 27  5 22  2.0800000  0  4G 6G 9G11G13
   -493504.634 9   -530249.353 9  19357913.434    19357917.102       -2173.650
     -1704.366
 -15253730.912 8 -23504078.080 8  18363747.614    18363751.673         707.262
       569.388
  -8407135.694 8  -6584486.044 8  19115507.311    19115512.653       -1188.953
      -939.058
 -34936030.749 9  15850064.224 9  19517071.653    19517076.563        1819.102
      1420.782
 88  3 27  5 22 32.0800000  0  4G 6G 9G11G13
   -427493.337 9   -478812.013 8  19370473.969    19370478.573       -2205.468
     -1722.219
 -15274835.180 7 -23520522.954 8  18359730.465    18359735.094         693.075
       548.379
  -8371161.279 9  -6556454.038 8  19122352.558    19122358.094       -1199.981
      -931.937
 -34990235.091 9  15807827.100 8  19506756.731    19506762.080        1799.629
      1398.244
 88  3 27  5 23  2.0800000  0  4G 6G 9G11G13
   -360960.675 9   -426968.415 9  19383135.775    19383139.778       -2219.598
     -1734.174
 -15295352.283 8 -23536510.318 8  18355826.239    18355830.899         692.270
       528.221
  -8334819.493 8  -6528135.762 9  19129268.529    19129273.956       -1216.376
      -957.370
 -35043985.212 8  15765943.923 9  19496528.848    19496534.182        1788.010
      1389.365
 88  3 27  5 23 32.0800000  0  4G 6G 9G11G13
   -293907.710 9   -374719.380 9  19395895.067    19395899.575       -2249.398
     -1749.733
 -15315280.123 8 -23552038.505 7  18352035.214    18352039.156         658.817
       509.039
  -8298112.262 9  -6499532.732 8  19136253.490    19136258.866       -1225.786
      -948.553
 -35097280.738 9  15724414.970 8  19486387.209    19486392.826        1769.964
      1386.562
 88  3 27  5 24  2.0800000  0  4G 6G 9G11G13
   -226335.672 9   -322065.872 9  19408753.665    19408757.678       -2258.625
     -1759.228
 -15334617.271 8 -23567106.414 8  18348354.850    18348359.604         645.365
       502.341
  -8261042.229 9  -6470646.994 9  19143308.085    19143312.579       -1249.853
      -976.521
 -35150121.250 8  15683240.565 8  19476331.375    19476336.910        1731.464
      1362.664
 88  3 27  5 24 32.0800000  0  4G 6G 9G11G13
   -158245.944 9   -269008.963 9  19421711.175    19421714.610       -2268.800
     -1773.016
 -15353362.008 8 -23581712.716 7  18344788.769    18344792.983         616.035
       487.030
  -8223611.399 9  -6441480.110 9  19150431.071    19150435.751       -1253.401
      -979.448
 -35202506.612 9  15642420.827 8  19466363.238    19466367.491        1736.185
      1354.916
 88  3 27  5 25  2.0800000  0  4G 6G 9G11G13
    -89639.768 9   -215549.634 9  19434766.484    19434770.225       -2293.218
     -1795.523
 -15371512.439 9 -23595855.908 8  18341334.933    18341338.221         592.766
       465.176
  -8185821.899 9  -6412033.738 8  19157622.571    19157627.021       -1266.400
      -984.394
 -35254436.623 8  15601955.914 8  19456481.331    19456485.676        1711.034
      1346.459
 88  3 27  5 25 32.0800000  0  4G 6G 9G11G13
    -20518.189 9   -161688.685 9  19447919.836    19447923.768       -2307.484
     -1816.966
 -15389066.736 8 -23609534.591 8  18337993.665    18337998.473         584.480
       448.132
  -8147676.134 9  -6382309.771 8  19164880.664    19164885.608       -1280.474
      -984.096
 -35305911.417 9  15561845.704 9  19446685.772    19446691.048        1710.818
      1329.327
 88  3 27  5 26  2.0800000  0  4G 6G 9G11G13
     49117.205 9   -107427.366 9  19461171.061    19461175.636       -2327.093
     -1813.735
 -15406023.413 8 -23622747.590 8  18334766.720    18334771.942         543.173
       436.257
  -8109176.114 9  -6352309.769 9  19172206.917    19172211.788       -1283.584
     -1010.759
 -35356931.094 9  15522090.139 8  19436976.799    19436981.949        1683.466
      1327.420
 88  3 27  5 26 32.0800000  0  4G 6G 9G11G13
    119265.329 9    -52766.509 8  19474520.456    19474523.962       -2347.260
     -1827.188
 -15422380.641 7 -23635493.491 7  18331654.380    18331658.399         545.789
       423.761
  -8070323.856 9  -6322035.278 9  19179600.554    19179605.568       -1302.858
      -998.220
 -35407494.911 9  15482689.787 9  19427355.325    19427360.266        1676.616
      1309.611
 88  3 27  5 27  2.0800000  0  4G 6G 9G11G13
    189924.750 9      2292.754 8  19487965.725    19487969.604       -2356.295
     -1840.442
 -15438136.653 8 -23647770.894 8  18328656.382    18328660.032         518.867
       397.695
  -8031121.456 9  -6291487.952 8  19187060.092    19187065.738       -1326.231
     -1019.850
 -35457602.951 9  15443644.595 8  19417819.385    19417825.222        1651.194
      1305.230
 88  3 27  5 27 32.0800000  0  4G 6G 9G11G13
    261094.338 9     57749.552 9  19501508.312    19501512.581       -2369.237
     -1855.163
 -15453289.880 8 -23659578.612 7  18325773.253    18325776.076         491.380
       381.415
  -7991571.420 9  -6260669.747 8  19194586.386    19194590.803       -1332.435
     -1026.679
 -35507255.010 9  15404954.699 8  19408371.340    19408375.367        1651.712
      1297.233
 88  3 27  5 28  2.0800000  0  4G 6G 9G11G13
    332772.231 9    113602.429 8  19515148.840    19515152.589       -2396.613
     -1873.009
 -15467839.122 8 -23670915.709 8  18323004.095    18323008.142         471.548
       384.434
  -7951675.866 9  -6229582.312 9  19202178.732    19202183.702       -1324.230
     -1043.785
 -35556451.709 9  15366619.633 8  19399009.524    19399014.742        1626.888
      1279.139
 88  3 27  5 28 32.0800000  0  4G 6G 9G11G13
    404957.183 9    169850.421 8  19528884.916    19528890.015       -2414.013
     -1883.112
 -15481782.494 8 -23681780.684 7  18320350.372    18320355.643         457.856
       357.119
  -7911437.176 9  -6198227.479 9  19209835.299    19209840.512       -1333.225
     -1048.110
 -35605192.231 9  15328640.020 8  19389734.142    19389739.737        1616.259
      1259.366
 88  3 27  5 29  2.0800000  0  4G 6G 9G11G13
    477647.351 9    226492.086 8  19542717.489    19542721.369       -2416.828
     -1888.388
 -15495119.177 8 -23692172.903 8  18317813.251    18317816.973         430.862
       342.746
  -7870857.967 8  -6166607.324 8  19217557.181    19217561.870       -1362.873
     -1053.094
 -35653477.354 9  15291015.278 8  19380546.192    19380551.363        1603.922
      1237.357
 88  3 27  5 29 32.0800000  0  4G 6G 9G11G13
    550840.999 9    283526.068 9  19556645.975    19556650.378       -2437.904
     -1903.729
 -15507847.645 8 -23702091.196 7  18315390.922    18315394.409         409.699
       334.581
  -7829940.735 8  -6134723.768 9  19225343.358    19225348.894       -1375.632
     -1069.231
 -35701307.522 9  15253745.028 8  19371443.827    19371448.865        1595.007
      1246.678
 88  3 27  5 30  2.0800000  0  4G 6G 9G11G13
    624535.960 9    340950.663 9  19570669.240    19570673.762       -2463.582
     -1917.077
 -15519966.974 9 -23711534.837 8  18313085.325    18313088.790         384.244
       306.632
  -7788688.275 9  -6102579.001 8  19233193.491    19233199.604       -1370.130
     -1074.668
 -35748683.043 9  15216829.070 9  19362428.367    19362434.140        1580.773
      1219.517
 88  3 27  5 30 32.0800000  0  4G 6G 9G11G13
    698730.754 9    398764.763 8  19584788.860    19584792.485       -2487.250
     -1921.588
 -15531475.837 8 -23720502.796 8  18310894.013    18310898.793         366.103
       276.712
  -7747103.013 9  -6070174.901 9  19241107.162    19241112.497       -1385.648
     -1073.437
 -35795603.807 9  15180267.453 8  19353500.152    19353505.511        1553.261
      1204.001
 88  3 27  5 31  2.0800000  0  4G 6G 9G11G13
    773423.619 9    456966.964 8  19599001.341    19599006.655       -2500.447
     -1957.560
 -15542373.192 8 -23728994.243 7  18308821.378    18308825.615         348.424
       277.545
  -7705187.242 9  -6037513.277 9  19249084.168    19249089.042       -1409.723
     -1086.437
 -35842070.749 9  15144059.466 9  19344658.030    19344662.460        1550.821
      1201.883
 88  3 27  5 31 32.0800000  0  4G 6G 9G11G13
    848612.845 9    515555.946 9  19613309.887    19613314.227       -2516.244
     -1944.399
 -15552657.495 9 -23737007.986 7  18306864.011    18306867.380         339.293
       273.562
  -7662943.409 9  -6004595.999 9  19257122.693    19257127.159       -1410.097
     -1100.287
 -35888084.286 9  15108204.781 8  19335900.872    19335906.138        1528.836
      1191.878
 88  3 27  5 32  2.0800000  0  4G 6G 9G11G13
    924296.922 9    574530.522 9  19627712.292    19627716.299       -2525.160
     -1964.034
 -15562327.467 8 -23744543.035 8  18305024.185    18305027.820         324.030
       251.770
  -7620373.815 9  -5971424.885 9  19265222.555    19265227.403       -1424.499
     -1104.196
 -35933643.516 9  15072704.090 8  19327231.819    19327237.508        1509.330
      1183.658
 88  3 27  5 32 32.0800000  0  4G 6G 9G11G13
   1000474.164 9    633889.372 9  19642208.510    19642212.727       -2533.541
     -1984.975
 -15571381.645 8 -23751598.255 8  18303300.299    18303304.174         286.830
       226.729
  -7577480.638 9  -5938001.641 9  19273385.451    19273389.847       -1422.960
     -1115.561
 -35978748.806 9  15037557.142 8  19318648.632    19318653.824        1490.415
      1175.493
 88  3 27  5 33  2.0800000  0  4G 6G 9G11G13
   1077142.887 9    693631.208 8  19656797.702    19656801.957       -2562.368
     -1987.982
 -15579819.153 8 -23758172.936 8  18301695.174    18301699.840         283.130
       212.841
  -7534266.196 9  -5904328.044 9  19281608.921    19281613.854       -1456.421
     -1127.920
 -36023400.711 8  15002763.482 8  19310151.681    19310157.130        1476.061
      1164.109
 88  3 27  5 33 32.0800000  0  4G 6G 9G11G13
   1154302.070 9    753755.222 8  19671480.841    19671484.547       -2579.664
     -2016.603
 -15587637.760 8 -23764265.349 7  18300207.256    18300211.186         249.765
       196.579
  -7490732.478 9  -5870405.677 9  19289893.216    19289897.841       -1454.371
     -1138.347
 -36067598.861 9  14968323.388 8  19301740.703    19301746.874        1459.881
      1160.704
 88  3 27  5 34  2.0800000  0  4G 6G 9G11G13
   1231949.814 9    814259.927 9  19686256.323    19686261.794       -2594.321
     -2022.935
 -15594836.464 8 -23769874.737 8  18298837.808    18298840.466         213.131
       182.586
  -7446881.710 9  -5836236.248 9  19298237.219    19298243.193       -1461.843
     -1154.589
 -36111343.673 9  14934236.542 9  19293416.628    19293422.663        1451.062
      1143.784
 88  3 27  5 34 32.0800000  0  4G 6G 9G11G13
   1310084.922 9    875144.396 8  19701125.411    19701130.444       -2611.028
     -2036.388
 -15601413.370 8 -23774999.611 9  18297585.854    18297589.516         204.494
       155.935
  -7402715.142 9  -5801820.742 9  19306642.482    19306647.577       -1477.688
     -1153.601
 -36154634.764 9  14900503.245 9  19285177.958    19285184.011        1434.036
      1118.152
 88  3 27  5 35  2.0800000  0  4G 6G 9G11G13
   1388706.431 9    936407.878 8  19716086.100    19716090.599       -2616.849
     -2049.312
 -15607367.110 8 -23779638.885 7  18296453.016    18296456.141         211.990
       158.986
  -7358234.912 9  -5767160.823 9  19315106.533    19315112.202       -1479.865
     -1159.877
 -36197471.747 8  14867123.820 8  19277027.331    19277031.889        1435.081
      1108.322
 88  3 27  5 35 32.0800000  0  4G 6G 9G11G13
   1467812.678 9    998049.087 9  19731140.631    19731144.390       -2652.837
     -2062.430
 -15612696.025 8 -23783791.296 8  18295439.102    18295442.941         164.033
       128.830
  -7313443.363 9  -5732258.326 9  19323630.620    19323635.672       -1499.721
     -1166.632
 -36239854.628 9  14834098.228 9  19268960.881    19268966.647        1402.402
      1093.607
 88  3 27  5 36  2.0800000  0  4G 6G 9G11G13
   1547401.973 9   1060066.691 8  19746285.074    19746289.658       -2655.812
     -2068.730
 -15617398.789 8 -23787455.786 7  18294542.819    18294547.718         174.000
       121.815
  -7268342.612 9  -5697114.883 8  19332213.300    19332217.204       -1521.842
     -1180.215
 -36281783.690 9  14801426.236 9  19260983.034    19260988.977        1382.187
      1082.764
 88  3 27  5 36 32.0800000  0  4G 6G 9G11G13
   1627473.032 9   1122459.696 8  19761522.483    19761526.542       -2671.234
     -2084.669
 -15621473.933 8 -23790631.225 7  18293768.082    18293771.925         129.535
        95.239
  -7222934.326 9  -5661731.814 9  19340853.284    19340858.837       -1514.538
     -1181.918
 -36323258.620 9  14769108.136 9  19253090.336    19253096.046        1374.301
      1071.244
 88  3 27  5 37  2.0800000  0  4G 6G 9G11G13
   1708024.175 9   1185226.781 9  19776851.162    19776855.393       -2695.588
     -2092.858
 -15624920.279 8 -23793316.694 8  18293112.322    18293117.194         103.587
        90.106
  -7177220.571 9  -5626110.716 9  19349552.886    19349557.895       -1530.646
     -1192.469
 -36364279.605 9  14737143.763 8  19245284.231    19245290.879        1351.342
      1045.705
 88  3 27  5 37 32.0800000  0  4G 6G 9G11G13
   1789053.465 9   1248366.457 9  19792270.436    19792274.352       -2709.391
     -2096.226
 -15627736.516 7 -23795511.178 7  18292575.700    18292582.486         104.616
        51.289
  -7131203.975 9  -5590253.635 9  19358308.754    19358314.833       -1542.966
     -1197.645
 -36404847.338 9  14705532.572 8  19237564.699    19237570.273        1355.314
      1048.731
 88  3 27  5 38  2.0800000  0  4G 6G 9G11G13
   1870559.307 9   1311877.470 7  19807780.250    19807784.243       -2716.433
     -2122.622
 -15629921.665 8 -23797213.889 8  18292160.653    18292164.865          66.060
        52.308
  -7084886.488 9  -5554162.080 9  19367123.170    19367128.422       -1545.167
     -1202.690
 -36444961.810 8  14674274.576 8  19229931.356    19229936.289        1316.885
      1041.399
 88  3 27  5 38 32.0800000  0  4G 6G 9G11G13
   1952539.732 9   1375758.278 9  19823381.063    19823384.851       -2742.086
     -2139.443
 -15631474.992 8 -23798424.285 7  18291866.179    18291868.442          64.489
        21.052
  -7038270.540 9  -5517837.962 9  19375993.678    19375999.792       -1546.140
     -1215.671
 -36484623.190 9  14643369.634 8  19222383.607    19222388.603        1307.499
      1020.484
 88  3 27  5 39  2.0800000  0  4G 6G 9G11G13
   2034992.961 9   1440007.496 8  19839071.411    19839075.980       -2756.831
     -2149.093
 -15632395.032 8 -23799141.216 8  18291690.455    18291693.720          25.909
        23.637
  -6991358.152 9  -5481282.852 9  19384921.217    19384926.973       -1551.172
     -1217.777
 -36523831.667 9  14612817.600 9  19214921.503    19214928.892        1300.418
       999.462
 88  3 27  5 39 32.0800000  0  4G 6G 9G11G13
   2117917.382 9   1504623.875 9  19854850.784    19854855.822       -2771.918
     -2167.890
 -15632680.718 7 -23799363.816 8  18291634.679    18291640.424          -3.094
        -8.053
  -6944151.551 9  -5444498.492 9  19393904.257    19393910.025       -1577.312
     -1232.361
 -36562587.751 9  14582618.082 8  19207547.921    19207553.288        1281.910
      1017.986
 88  3 27  5 40  2.0800000  0  4G 6G 9G11G13
   2201311.346 9   1569606.152 8  19870720.390    19870724.192       -2783.983
     -2173.022
 -15632331.001 8 -23799091.329 8  18291702.829    18291706.612         -17.121
       -13.919
  -6896652.956 8  -5407486.610 8  19402943.036    19402948.050       -1585.007
     -1245.298
 -36600891.728 9  14552770.857 9  19200258.362    19200263.858        1253.409
       998.145
 88  3 27  5 40 32.0800000  0  4G 6G 9G11G13
   2285172.922 8   1634952.797 8  19886679.518    19886683.182       -2804.781
     -2180.585
 -15631344.873 8 -23798322.921 8  18291890.468    18291894.500         -47.081
       -32.778
  -6848864.645 9  -5370248.962 9  19412037.341    19412041.208       -1586.809
     -1246.870
 -36638743.851 9  14523275.725 8  19193055.745    19193060.710        1255.475
       977.391
 88  3 27  5 41  2.0800000  0  4G 6G 9G11G13
   2369500.292 9   1700662.397 8  19902724.931    19902730.531       -2819.461
     -2195.628
 -15629721.162 8 -23797057.689 7  18292198.734    18292202.823         -61.363
       -45.417
  -6800788.553 9  -5332787.083 9  19421184.979    19421189.558       -1594.098
     -1241.968
 -36676144.304 9  14494132.535 8  19185938.290    19185943.674        1252.117
       961.732
 88  3 27  5 41 32.0800000  0  4G 6G 9G11G13
   2454291.312 9   1766733.291 9  19918860.363    19918864.647       -2824.852
     -2200.941
 -15627459.242 8 -23795295.156 7  18292628.628    18292633.383         -76.689
       -60.330
  -6752427.015 9  -5295102.773 7  19430388.051    19430393.816       -1597.128
     -1270.613
 -36713093.841 9  14465340.727 8  19178907.304    19178912.563        1234.263
       953.424
 88  3 27  5 42  2.0800000  0  4G 6G 9G11G13
   2539544.986 9   1833164.686 9  19935083.990    19935088.703       -2848.950
     -2211.890
 -15624558.299 8 -23793034.698 8  18293180.102    18293185.427        -103.970
       -75.529
  -6703782.281 9  -5257197.782 8  19439644.712    19439650.180       -1630.756
     -1274.795
 -36749592.962 9  14436899.884 8  19171961.331    19171966.453        1208.131
       958.774
 88  3 27  5 42 32.0800000  0  4G 6G 9G11G13
   2625258.440 9   1899954.370 9  19951395.109    19951399.616       -2874.508
     -2237.683
 -15621017.130 8 -23790275.356 8  18293854.492    18293859.103        -131.178
      -102.086
  -6654856.495 9  -5219073.787 9  19448954.389    19448960.081       -1644.201
     -1274.565
 -36785641.303 9  14408810.279 8  19165101.740    19165106.689        1197.772
       930.906
 88  3 27  5 43  2.0800000  0  4G 6G 9G11G13
   2711429.653 9   1967100.745 8  19967792.853    19967797.466       -2882.052
     -2245.034
 -15616835.097 7 -23787016.633 7  18294652.074    18294654.166        -161.002
      -104.423
  -6605651.915 9  -5180732.559 9  19458317.868    19458324.277       -1647.087
     -1282.730
 -36821239.880 9  14381071.147 8  19158327.984    19158332.594        1173.060
       917.173
 88  3 27  5 43 32.0800000  0  4G 6G 9G11G13
   2798056.792 9   2034602.381 9  19984277.551    19984281.286       -2874.740
     -2253.752
 -15612011.449 9 -23783257.961 7  18295568.457    18295573.631        -170.101
      -125.220
  -6556170.709 9  -5142175.796 9  19467734.824    19467739.803       -1647.654
     -1282.525
 -36856389.053 9  14353682.203 9  19151639.000    19151644.130        1160.723
       912.836
 88  3 27  5 44  2.0800000  0  4G 6G 9G11G13
   2885137.901 9   2102457.769 8  20000848.042    20000852.353       -2907.323
     -2266.614
 -15606545.436 9 -23778998.718 8  18296609.187    18296613.399        -185.324
      -130.695
  -6506415.399 9  -5103405.411 9  19477202.362    19477208.287       -1668.810
     -1299.700
 -36891089.841 9  14326642.663 9  19145035.769    19145040.279        1142.119
       892.852
 88  3 27  5 44 32.0800000  0  4G 6G 9G11G13
   2972671.076 9   2170665.408 9  20017505.252    20017509.798       -2928.702
     -2274.618
 -15600436.105 7 -23774238.216 8  18297770.582    18297776.893        -223.585
      -161.745
  -6456388.001 9  -5064423.022 9  19486722.215    19486727.331       -1687.350
     -1297.991
 -36925342.176 9  14299952.562 8  19138517.321    19138522.042        1144.870
       890.883
 88  3 27  5 45  2.0800000  0  4G 6G 9G11G13
   3060653.740 9   2239223.295 9  20034247.623    20034252.227       -2942.689
     -2286.455
 -15593683.470 9 -23768976.427 8  18299056.134    18299061.008        -227.181
      -188.327
  -6406091.705 9  -5025231.111 9  19496293.161    19496298.142       -1672.502
     -1305.516
 -36959147.017 9  14273611.140 9  19132084.313    19132089.876        1113.922
       884.719
 88  3 27  5 45 32.0800000  0  4G 6G 9G11G13
   3149084.217 9   2308130.136 9  20051075.659    20051080.243       -2963.709
     -2292.980
 -15586286.408 7 -23763212.498 8  18300464.970    18300468.730        -263.130
      -200.873
  -6355527.990 9  -4985830.813 8  19505915.066    19505920.377       -1694.096
     -1324.847
 -36992504.692 9  14247618.161 9  19125737.128    19125742.473        1122.088
       866.388
 88  3 27  5 46  2.0800000  0  4G 6G 9G11G13
   3237960.166 9   2377384.092 9  20067988.329    20067993.028       -2972.210
     -2315.853
 -15578244.464 8 -23756946.033 8  18301994.797    18301999.969        -293.018
      -217.389
  -6304699.366 9  -4946224.105 9  19515588.182    19515593.610       -1705.284
     -1336.256
 -37025416.002 9  14221973.005 8  19119473.803    19119479.038        1093.500
       849.393
 88  3 27  5 46 32.0800000  0  4G 6G 9G11G13
   3327279.304 9   2446983.394 8  20084985.370    20084989.531       -2982.218
     -2327.267
 -15569557.215 7 -23750176.765 8  18303647.838    18303651.551        -289.182
      -229.046
  -6253608.123 9  -4906412.751 9  19525309.843    19525315.094       -1708.705
     -1330.297
 -37057882.293 9  14196674.618 9  19113295.506    19113300.228        1069.305
       834.592
 88  3 27  5 47  2.0800000  0  4G 6G 9G11G13
   3417039.359 9   2516926.277 8  20102065.637    20102070.203       -2993.733
     -2348.226
 -15560224.464 8 -23742904.486 8  18305423.796    18305428.233        -326.303
      -232.545
  -6202257.052 9  -4866398.934 9  19535081.463    19535087.220       -1717.206
     -1346.552
 -37089903.871 9  14171722.772 8  19107202.200    19107207.257        1056.810
       832.647
 88  3 27  5 47 32.0800000  0  4G 6G 9G11G13
   3507238.105 9   2587210.979 9  20119230.079    20119234.931       -3018.828
     -2364.743
 -15550245.614 8 -23735128.770 8  18307322.668    18307328.062        -340.106
      -267.684
  -6150648.033 9  -4826184.117 8  19544902.939    19544908.123       -1715.842
     -1347.179
 -37121481.830 9  14147116.592 7  19101192.983    19101198.638        1042.695
       816.684
 88  3 27  5 48  2.0800000  0  4G 6G 9G11G13
   3597873.066 9   2657835.605 9  20136477.992    20136482.194       -3032.552
     -2364.395
 -15539620.504 8 -23726849.480 8  18309344.649    18309349.540        -365.951
      -287.176
  -6098784.019 9  -4785770.605 9  19554772.669    19554777.435       -1736.344
     -1356.283
 -37152616.751 9  14122855.635 9  19095267.846    19095273.529        1028.054
       803.685
 88  3 27  5 48 32.0800000  0  4G 6G 9G11G13
   3688942.548 9   2728798.813 9  20153807.740    20153811.971       -3040.590
     -2361.661
 -15528348.034 8 -23718065.757 8  18311490.552    18311493.541        -385.122
      -304.407
  -6046666.520 9  -4745159.583 8  19564690.957    19564694.393       -1738.258
     -1358.259
 -37183309.284 9  14098939.394 8  19089427.559    19089433.190        1024.840
       788.523
 88  3 27  5 49  2.0800000  0  4G 6G 9G11G13
   3780444.228 9   2800098.805 9  20171219.767    20171223.808       -3045.455
     -2393.245
 -15516427.989 8 -23708777.415 8  18313757.437    18313762.281        -414.690
      -313.858
  -5994297.931 9  -4704352.880 9  19574655.522    19574660.261       -1753.170
     -1371.736
 -37213559.398 9  14075367.896 9  19083670.636    19083676.342         994.027
       789.337
 88  3 27  5 49 32.0800000  0  4G 6G 9G11G13
   3872376.329 9   2871734.173 9  20188713.762    20188718.624       -3063.333
     -2396.812
 -15503859.788 8 -23698983.995 8  18316150.652    18316154.794        -425.256
      -325.093
  -5941680.330 8  -4663352.157 9  19584668.395    19584673.730       -1756.663
     -1367.088
 -37243368.381 9  14052140.135 8  19077998.971    19078004.329         980.240
       771.236
 88  3 27  5 50  2.0800000  0  4G 6G 9G11G13
   3964736.850 9   2943703.387 9  20206289.045    20206293.540       -3089.912
     -2402.957
 -15490642.335 7 -23688684.705 7  18318664.229    18318668.931        -436.508
      -353.241
  -5888815.471 9  -4622158.762 9  19594727.652    19594733.896       -1759.255
     -1379.926
 -37272736.218 8  14029256.134 8  19072411.082    19072415.487         978.190
       759.262
 88  3 27  5 50 32.0800000  0  4G 6G 9G11G13
   4057523.312 9   3016004.512 8  20223945.943    20223949.348       -3104.170
     -2407.152
 -15476775.899 9 -23677879.707 8  18321303.533    18321307.027        -479.131
      -367.844
  -5835705.911 9  -4580774.702 9  19604834.851    19604839.720       -1776.352
     -1393.802
 -37301664.006 9  14006715.024 8  19066905.778    19066910.933         956.085
       751.762
 88  3 27  5 51  2.0800000  0  4G 6G 9G11G13
   4150733.939 9   3088636.141 9  20241682.994    20241688.828       -3121.618
     -2426.520
 -15462259.474 8 -23666568.209 7  18324065.852    18324070.590        -479.881
      -383.757
  -5782353.293 9  -4539201.234 8  19614986.894    19614991.792       -1798.975
     -1379.752
 -37330151.755 9  13984516.805 9  19061484.819    19061489.388         938.271
       737.408
 88  3 27  5 51 32.0800000  0  4G 6G 9G11G13
   4244366.404 9   3161596.477 8  20259501.290    20259506.842       -3132.311
     -2438.096
 -15447092.881 8 -23654750.093 7  18326951.400    18326957.057        -499.785
      -402.057
  -5728759.764 9  -4497440.039 9  19625185.065    19625190.988       -1800.004
     -1398.748
 -37358200.461 9  13962660.705 8  19056146.703    19056152.384         939.953
       716.375
 88  3 27  5 52  2.0800000  0  4G 6G 9G11G13
   4338418.367 9   3234883.685 9  20277398.436    20277403.903       -3135.294
     -2447.206
 -15431275.864 8 -23642425.143 8  18329961.822    18329966.374        -550.701
      -409.638
  -5674928.274 9  -4455493.435 9  19635429.247    19635434.528       -1800.275
     -1400.860
 -37385811.219 9  13941145.842 8  19050892.790    19050898.063         916.947
       705.519
 88  3 27  5 52 32.0800000  0  4G 6G 9G11G13
   4432887.303 9   3308495.827 9  20295376.135    20295379.856       -3148.029
     -2458.136
 -15414808.504 8 -23629593.445 8  18333095.643    18333100.114        -545.175
      -433.287
  -5620860.842 9  -4413362.969 9  19645718.139    19645724.125       -1802.723
     -1416.693
 -37412984.655 8  13919971.777 9  19045721.940    19045726.423         893.447
       700.474
 88  3 27  5 53  2.0800000  0  4G 6G 9G11G13
   4527771.123 9   3382431.255 9  20313431.038    20313436.122       -3177.279
     -2476.249
 -15397690.365 8 -23616254.647 7  18336352.509    18336357.540        -583.013
      -447.542
  -5566559.710 9  -4371050.415 8  19656050.842    19656056.387       -1823.472
     -1403.706
 -37439721.706 9  13899137.722 9  19040633.691    19040638.436         885.744
       702.313
 88  3 27  5 53 32.0800000  0  4G 6G 9G11G13
   4623067.469 8   3456688.110 8  20331565.868    20331569.998       -3186.696
     -2469.526
 -15379921.173 8 -23602408.536 8  18339734.388    18339738.659        -619.009
      -482.867
  -5512026.815 9  -4328557.243 9  19666428.643    19666434.183       -1807.101
     -1412.176
 -37466023.085 9  13878643.167 8  19035628.979    19035634.159         869.356
       661.258
 88  3 27  5 54  2.0800000  0  4G 6G 9G11G13
   4718773.928 9   3531264.545 8  20349777.875    20349783.413       -3188.618
     -2483.879
 -15361500.806 8 -23588055.012 8  18343239.479    18343243.702        -616.593
      -488.279
  -5457264.438 8  -4285885.288 8  19676848.971    19676854.603       -1822.196
     -1435.769
 -37491889.422 9  13858487.595 8  19030706.503    19030711.501         868.049
       659.954
 88  3 27  5 54 32.0800000  0  4G 6G 9G11G13
   4814888.313 9   3606158.852 8  20368067.694    20368072.694       -3215.029
     -2507.125
 -15342429.348 8 -23573194.144 8  18346868.869    18346873.281        -641.306
      -499.066
  -5402274.782 9  -4243036.224 9  19687313.379    19687318.784       -1843.304
     -1428.319
 -37517321.831 9  13838670.156 8  19025866.026    19025871.770         850.744
       651.055
 88  3 27  5 55  2.0800000  0  4G 6G 9G11G13
   4911408.274 9   3681369.183 9  20386434.814    20386440.505       -3220.858
     -2504.093
 -15322706.419 8 -23557825.632 7  18350622.225    18350625.763        -667.709
      -498.495
  -5347060.052 9  -4200011.745 9  19697820.584    19697825.966       -1835.729
     -1434.632
 -37542321.363 9  13819190.014 8  19021110.121    19021115.731         835.721
       650.465
 88  3 27  5 55 32.0800000  0  4G 6G 9G11G13
   5008331.544 9   3756893.780 8  20404878.903    20404883.774       -3243.992
     -2519.031
 -15302331.936 8 -23541949.423 7  18354498.348    18354503.436        -686.760
      -540.680
  -5291622.144 9  -4156813.388 9  19708370.351    19708375.723       -1842.547
     -1449.179
 -37566888.312 9  13800046.969 9  19016434.687    19016439.609         814.612
       635.055
 88  3 27  5 56  2.0800000  0  4G 6G 9G11G13
   5105655.794 9   3832730.841 8  20423398.932    20423403.765       -3248.641
     -2527.662
 -15281305.695 8 -23525565.351 7  18358500.191    18358504.805        -703.187
      -554.120
  -5235963.655 9  -4113443.129 9  19718960.960    19718966.971       -1860.274
     -1450.993
 -37591023.967 9  13781239.988 9  19011841.913    19011847.302         793.919
       609.697
 88  3 27  5 56 32.0800000  0  4G 6G 9G11G13
   5203378.625 9   3908878.469 8  20441995.516    20442000.005       -3256.041
     -2551.541
 -15259627.770 1 -23508673.444 1  18362626.978    18362629.871        -786.902
      -626.088
  -5180086.571 9  -4069902.563 9  19729594.494    19729599.793       -1862.084
     -1462.047
 -37614729.031 9  13762768.542 8  19007331.159    19007336.985         778.991
       604.862
 88  3 27  5 57  2.0800000  0  4G 6G 9G11G13
   5301497.747 9   3985334.896 9  20460666.449    20460670.755       -3282.987
     -2547.173
 -15318308.062 1 -23491273.606 1                                      -755.570
      -587.911
  -5123992.696 9  -4026193.057 9  19740268.404    19740274.293       -1869.851
     -1465.005
 -37638004.375 9  13744631.924 9  19002901.704    19002907.828         765.419
       600.916
 88  3 27  5 57 32.0800000  0  4G 6G 9G11G13
   5400010.848 9   4062098.328 8  20479413.349    20479417.577       -3290.443
     -2560.489
 -62691698.618 1 -23410091.051 1                                      -648.339
      -849.990
  -5067684.095 9  -3982316.235 9  19750983.723    19750989.251       -1874.787
     -1454.653
 -37660850.794 8  13726829.540 9  18998553.050    18998558.847         765.435
       594.373
